| time (UTC) | temp F | wind direction | speed knots | gust knots | rain 1hr in | rain 24hr in | rain mn in | humidity % | barometer mb |
| 20260504000632 | 44 | 194 | 0.0 | 0.0 | 0.00 | 0.00 | 0.00 | 37 | 1008.1 |
| 20260504000416 | 44 | 194 | 0.0 | 0.0 | 0.00 | 0.00 | 0.00 | 37 | 1008.0 |
| 20260504000330 | 44 | 194 | 0.0 | 0.0 | 0.00 | 0.00 | 0.00 | 36 | 1008.0 |
| 20260504000234 | 44 | 194 | 0.0 | 0.0 | 0.00 | 0.00 | 0.00 | 36 | 1008.0 |
| 20260504000153 | 44 | 194 | 0.0 | 0.9 | 0.00 | 0.00 | 0.00 | 36 | 1008.0 |
| 20260504000025 | 44 | 194 | 0.0 | 0.9 | 0.00 | 0.00 | 0.00 | 37 | 1008.0 |
| 20260503235918 | 45 | 194 | 0.0 | 0.9 | 0.00 | 0.02 | 0.00 | 36 | 1007.9 |
| 20260503235728 | 45 | 194 | 0.0 | 1.7 | 0.00 | 0.02 | 0.00 | 37 | 1008.0 |
| 20260503235640 | 45 | 194 | 0.0 | 1.7 | 0.00 | 0.02 | 0.00 | 37 | 1008.0 |
| 20260503235544 | 45 | 194 | 0.0 | 1.7 | 0.00 | 0.02 | 0.00 | 37 | 1008.0 |
| 20260503235438 | 45 | 194 | 0.0 | 1.7 | 0.00 | 0.02 | 0.00 | 38 | 1008.0 |
| 20260503235337 | 45 | 194 | 0.0 | 1.7 | 0.00 | 0.02 | 0.00 | 39 | 1008.0 |
| 20260503235245 | 45 | 194 | 0.0 | 1.7 | 0.00 | 0.02 | 0.00 | 41 | 1007.9 |
| 20260503235125 | 45 | 194 | 0.0 | 1.7 | 0.00 | 0.02 | 0.00 | 41 | 1007.9 |
| 20260503235027 | 46 | 194 | 0.0 | 1.7 | 0.00 | 0.02 | 0.00 | 41 | 1007.9 |
| 20260503234949 | 46 | 194 | 0.0 | 1.7 | 0.00 | 0.02 | 0.00 | 41 | 1007.9 |
| 20260503234821 | 46 | 194 | 0.0 | 1.7 | 0.00 | 0.02 | 0.00 | 41 | 1007.9 |
| 20260503234736 | 46 | 194 | 0.0 | 1.7 | 0.00 | 0.02 | 0.00 | 41 | 1007.9 |
| 20260503234527 | 46 | 194 | 0.9 | 1.7 | 0.00 | 0.02 | 0.00 | 43 | 1007.9 |
| 20260503234421 | 46 | 194 | 0.9 | 1.7 | 0.00 | 0.02 | 0.00 | 43 | 1007.9 |
| 20260503234345 | 46 | 194 | 0.9 | 1.7 | 0.00 | 0.02 | 0.00 | 43 | 1007.9 |
| 20260503234244 | 46 | 194 | 0.9 | 1.7 | 0.00 | 0.02 | 0.00 | 43 | 1007.9 |
| 20260503234206 | 47 | 194 | 0.9 | 1.7 | 0.00 | 0.02 | 0.00 | 44 | 1007.9 |
| 20260503234106 | 47 | 194 | 0.9 | 1.7 | 0.00 | 0.02 | 0.00 | 44 | 1007.9 |
| 20260503234011 | 47 | 194 | 0.9 | 1.7 | 0.00 | 0.02 | 0.00 | 43 | 1007.8 |
| 20260503233932 | 47 | 194 | 0.9 | 1.7 | 0.00 | 0.02 | 0.00 | 43 | 1007.8 |
| 20260503233735 | 47 | 194 | 0.0 | 0.0 | 0.00 | 0.02 | 0.00 | 40 | 1007.9 |
| 20260503233636 | 47 | 194 | 0.0 | 0.0 | 0.00 | 0.02 | 0.00 | 38 | 1007.8 |
| 20260503233530 | 47 | 194 | 0.0 | 0.0 | 0.00 | 0.02 | 0.00 | 40 | 1007.9 |
| 20260503233452 | 47 | 194 | 0.0 | 0.0 | 0.00 | 0.02 | 0.00 | 40 | 1007.9 |
| 20260503233407 | 47 | 194 | 0.0 | 0.0 | 0.00 | 0.02 | 0.00 | 42 | 1007.9 |
| 20260503233331 | 47 | 194 | 0.0 | 0.0 | 0.00 | 0.02 | 0.00 | 44 | 1007.8 |
| 20260503233231 | 48 | 194 | 0.0 | 0.0 | 0.00 | 0.02 | 0.00 | 47 | 1007.8 |
| 20260503233126 | 48 | 194 | 0.0 | 0.0 | 0.00 | 0.02 | 0.00 | 47 | 1007.8 |
| 20260503232938 | 48 | 194 | 0.0 | 0.0 | 0.00 | 0.02 | 0.00 | 49 | 1007.8 |
| 20260503232852 | 48 | 194 | 0.0 | 0.0 | 0.00 | 0.02 | 0.00 | 49 | 1007.8 |
| 20260503232722 | 48 | 194 | 0.0 | 0.0 | 0.00 | 0.02 | 0.00 | 50 | 1007.8 |
| 20260503232643 | 48 | 194 | 0.0 | 0.0 | 0.00 | 0.02 | 0.00 | 51 | 1007.8 |
| 20260503232507 | 48 | 194 | 0.0 | 0.0 | 0.00 | 0.02 | 0.00 | 52 | 1007.8 |
| 20260503232429 | 48 | 194 | 0.0 | 0.0 | 0.00 | 0.02 | 0.00 | 52 | 1007.8 |
| 20260503232239 | 48 | 194 | 0.0 | 0.0 | 0.00 | 0.02 | 0.00 | 52 | 1007.7 |
| 20260503232135 | 48 | 194 | 0.0 | 0.0 | 0.00 | 0.02 | 0.00 | 52 | 1007.7 |
| 20260503232059 | 48 | 194 | 0.0 | 0.0 | 0.00 | 0.02 | 0.00 | 52 | 1007.7 |
| 20260503232004 | 49 | 194 | 0.0 | 0.0 | 0.00 | 0.02 | 0.00 | 52 | 1007.7 |
| 20260503231925 | 49 | 194 | 0.0 | 0.0 | 0.00 | 0.02 | 0.00 | 52 | 1007.7 |
| 20260503231754 | 49 | 194 | 0.0 | 0.0 | 0.00 | 0.02 | 0.00 | 52 | 1007.7 |
| 20260503231647 | 49 | 194 | 0.0 | 0.0 | 0.00 | 0.02 | 0.00 | 52 | 1007.7 |
| 20260503231517 | 49 | 194 | 0.0 | 0.0 | 0.00 | 0.02 | 0.00 | 52 | 1007.6 |
| 20260503231439 | 49 | 194 | 0.0 | 0.0 | 0.00 | 0.02 | 0.00 | 52 | 1007.7 |
| 20260503231241 | 49 | 194 | 0.0 | 0.0 | 0.00 | 0.02 | 0.00 | 53 | 1007.7 |
| 20260503231141 | 49 | 194 | 0.0 | 0.0 | 0.00 | 0.02 | 0.00 | 53 | 1007.7 |
| 20260503231026 | 49 | 194 | 0.0 | 0.0 | 0.00 | 0.02 | 0.00 | 53 | 1007.7 |
| 20260503230951 | 49 | 194 | 0.0 | 0.0 | 0.00 | 0.02 | 0.00 | 53 | 1007.7 |
| 20260503230822 | 49 | 194 | 0.0 | 0.0 | 0.00 | 0.02 | 0.00 | 53 | 1007.7 |
| 20260503230714 | 49 | 194 | 0.0 | 0.0 | 0.00 | 0.02 | 0.00 | 53 | 1007.7 |
| 20260503230526 | 49 | 194 | 0.0 | 0.0 | 0.00 | 0.02 | 0.00 | 53 | 1007.7 |
| 20260503230439 | 49 | 194 | 0.0 | 0.0 | 0.00 | 0.02 | 0.00 | 51 | 1007.7 |
| 20260503230308 | 49 | 194 | 0.0 | 1.7 | 0.00 | 0.02 | 0.00 | 49 | 1007.7 |
| 20260503230208 | 49 | 194 | 0.0 | 1.7 | 0.00 | 0.02 | 0.00 | 48 | 1007.7 |
| 20260503230052 | 49 | 194 | 0.0 | 1.7 | 0.00 | 0.02 | 0.00 | 50 | 1007.7 |
| 20260503225931 | 49 | 194 | 0.0 | 1.7 | 0.00 | 0.03 | 0.00 | 49 | 1007.7 |
| 20260503225834 | 49 | 194 | 0.0 | 1.7 | 0.00 | 0.03 | 0.00 | 48 | 1007.7 |
| 20260503225757 | 49 | 194 | 0.0 | 1.7 | 0.00 | 0.03 | 0.00 | 49 | 1007.7 |
| 20260503225724 | 49 | 194 | 0.0 | 1.7 | 0.00 | 0.03 | 0.00 | 49 | 1007.7 |
| 20260503225527 | 49 | 194 | 0.9 | 1.7 | 0.00 | 0.03 | 0.00 | 49 | 1007.7 |
| 20260503225450 | 49 | 194 | 0.9 | 1.7 | 0.00 | 0.03 | 0.00 | 50 | 1007.7 |
| 20260503225336 | 49 | 194 | 0.0 | 0.9 | 0.00 | 0.03 | 0.00 | 50 | 1007.7 |
| 20260503225257 | 49 | 194 | 0.0 | 0.9 | 0.00 | 0.03 | 0.00 | 47 | 1007.7 |
| 20260503225108 | 49 | 194 | 0.0 | 0.0 | 0.00 | 0.03 | 0.00 | 46 | 1007.7 |
| 20260503224922 | 49 | 194 | 0.0 | 0.0 | 0.00 | 0.03 | 0.00 | 47 | 1007.7 |
| 20260503224825 | 49 | 194 | 0.0 | 0.9 | 0.00 | 0.03 | 0.00 | 45 | 1007.7 |
| 20260503224747 | 49 | 194 | 0.0 | 0.9 | 0.00 | 0.03 | 0.00 | 45 | 1007.7 |
| 20260503224713 | 49 | 194 | 0.0 | 0.9 | 0.00 | 0.03 | 0.00 | 46 | 1007.7 |
| 20260503224617 | 49 | 194 | 0.0 | 0.9 | 0.00 | 0.03 | 0.00 | 48 | 1007.8 |
| 20260503224517 | 49 | 194 | 0.0 | 0.9 | 0.00 | 0.03 | 0.00 | 48 | 1007.8 |
| 20260503224347 | 49 | 194 | 0.0 | 1.7 | 0.00 | 0.03 | 0.00 | 48 | 1007.8 |
| 20260503224240 | 49 | 194 | 0.0 | 1.7 | 0.00 | 0.03 | 0.00 | 48 | 1007.8 |
| 20260503224048 | 49 | 194 | 0.0 | 1.7 | 0.00 | 0.03 | 0.00 | 48 | 1007.8 |
| 20260503223951 | 49 | 194 | 0.0 | 1.7 | 0.00 | 0.03 | 0.00 | 48 | 1007.8 |
| 20260503223908 | 49 | 194 | 0.0 | 1.7 | 0.00 | 0.03 | 0.00 | 47 | 1007.8 |
| 20260503223646 | 49 | 194 | 0.9 | 2.6 | 0.00 | 0.03 | 0.00 | 47 | 1007.8 |
| 20260503223547 | 49 | 194 | 0.9 | 2.6 | 0.00 | 0.03 | 0.00 | 47 | 1007.8 |
| 20260503223509 | 49 | 194 | 0.0 | 2.6 | 0.00 | 0.03 | 0.00 | 46 | 1007.8 |
| 20260503223330 | 49 | 194 | 0.9 | 3.5 | 0.00 | 0.03 | 0.00 | 46 | 1007.8 |
| 20260503223225 | 49 | 194 | 0.9 | 3.5 | 0.00 | 0.03 | 0.00 | 46 | 1007.8 |
| 20260503223150 | 49 | 194 | 0.9 | 3.5 | 0.00 | 0.03 | 0.00 | 46 | 1007.8 |
| 20260503223121 | 49 | 194 | 0.9 | 3.5 | 0.00 | 0.03 | 0.00 | 47 | 1007.8 |
| 20260503223037 | 49 | 194 | 0.9 | 3.5 | 0.00 | 0.03 | 0.00 | 47 | 1007.8 |
| 20260503222907 | 49 | 194 | 1.7 | 3.5 | 0.00 | 0.03 | 0.00 | 45 | 1007.7 |
| 20260503222818 | 49 | 194 | 1.7 | 3.5 | 0.00 | 0.03 | 0.00 | 45 | 1007.7 |
| 20260503222622 | 49 | 184 | 1.7 | 3.5 | 0.00 | 0.03 | 0.00 | 46 | 1007.7 |
| 20260503222545 | 49 | 203 | 1.7 | 3.5 | 0.00 | 0.03 | 0.00 | 46 | 1007.7 |
| 20260503222450 | 49 | 223 | 0.9 | 2.6 | 0.00 | 0.03 | 0.00 | 46 | 1007.7 |
| 20260503222347 | 49 | 261 | 0.9 | 2.6 | 0.00 | 0.03 | 0.00 | 47 | 1007.7 |
| 20260503222218 | 50 | 261 | 0.9 | 2.6 | 0.00 | 0.03 | 0.00 | 46 | 1007.7 |
| 20260503222122 | 50 | 261 | 0.9 | 2.6 | 0.00 | 0.03 | 0.00 | 46 | 1007.7 |
| 20260503222006 | 50 | 261 | 0.0 | 1.7 | 0.00 | 0.03 | 0.00 | 46 | 1007.8 |
| 20260503221928 | 50 | 344 | 0.0 | 0.9 | 0.00 | 0.03 | 0.00 | 46 | 1007.7 |
| 20260503221732 | 50 | 344 | 0.0 | 1.7 | 0.00 | 0.03 | 0.00 | 47 | 1007.7 |
| 20260503221635 | 50 | 344 | 0.0 | 1.7 | 0.00 | 0.03 | 0.00 | 47 | 1007.8 |
| 20260503221539 | 50 | 344 | 0.0 | 1.7 | 0.00 | 0.03 | 0.00 | 47 | 1007.8 |
| 20260503221501 | 50 | 344 | 0.0 | 1.7 | 0.00 | 0.03 | 0.00 | 49 | 1007.8 |
| 20260503221330 | 50 | 344 | 0.0 | 2.6 | 0.00 | 0.03 | 0.00 | 46 | 1007.8 |
| 20260503221225 | 50 | 344 | 0.0 | 2.6 | 0.00 | 0.03 | 0.00 | 46 | 1007.7 |
| 20260503221054 | 50 | 344 | 0.9 | 3.5 | 0.00 | 0.03 | 0.00 | 44 | 1007.7 |
| 20260503220931 | 50 | 344 | 0.9 | 3.5 | 0.00 | 0.03 | 0.00 | 44 | 1007.7 |
| 20260503220859 | 50 | 344 | 0.9 | 3.5 | 0.00 | 0.03 | 0.00 | 46 | 1007.7 |
| 20260503220801 | 50 | 29 | 0.9 | 3.5 | 0.00 | 0.03 | 0.00 | 47 | 1007.7 |
| 20260503220644 | 50 | 29 | 0.9 | 3.5 | 0.00 | 0.03 | 0.00 | 47 | 1007.7 |
| 20260503220537 | 50 | 29 | 1.7 | 3.5 | 0.00 | 0.03 | 0.00 | 46 | 1007.6 |
| 20260503220500 | 50 | 29 | 1.7 | 3.5 | 0.00 | 0.03 | 0.00 | 46 | 1007.6 |
| 20260503220405 | 50 | 360 | 2.6 | 3.5 | 0.00 | 0.03 | 0.00 | 47 | 1007.6 |
| 20260503220326 | 50 | 338 | 2.6 | 3.5 | 0.00 | 0.03 | 0.00 | 47 | 1007.6 |
| 20260503220128 | 50 | 348 | 1.7 | 3.5 | 0.00 | 0.03 | 0.00 | 48 | 1007.7 |
| 20260503220029 | 50 | 298 | 0.9 | 2.6 | 0.00 | 0.03 | 0.00 | 47 | 1007.6 |
| 20260503215936 | 50 | 298 | 0.0 | 2.6 | 0.00 | 0.04 | 0.00 | 46 | 1007.7 |
| 20260503215858 | 50 | 206 | 0.0 | 1.7 | 0.00 | 0.04 | 0.00 | 45 | 1007.7 |
| 20260503215819 | 50 | 206 | 0.0 | 1.7 | 0.00 | 0.04 | 0.00 | 45 | 1007.6 |
| 20260503215702 | 50 | 206 | 0.0 | 2.6 | 0.00 | 0.04 | 0.00 | 45 | 1007.6 |
| 20260503215624 | 50 | 217 | 0.0 | 2.6 | 0.00 | 0.04 | 0.00 | 46 | 1007.7 |
| 20260503215429 | 50 | 217 | 0.9 | 2.6 | 0.00 | 0.04 | 0.00 | 48 | 1007.6 |
| 20260503215331 | 50 | 217 | 0.9 | 2.6 | 0.00 | 0.04 | 0.00 | 48 | 1007.6 |
| 20260503215234 | 50 | 217 | 0.9 | 2.6 | 0.00 | 0.04 | 0.00 | 47 | 1007.6 |
| 20260503215156 | 50 | 217 | 0.0 | 2.6 | 0.00 | 0.04 | 0.00 | 47 | 1007.6 |
| 20260503215119 | 50 | 217 | 0.0 | 2.6 | 0.00 | 0.04 | 0.00 | 46 | 1007.7 |
| 20260503214946 | 50 | 217 | 0.9 | 3.5 | 0.00 | 0.04 | 0.00 | 45 | 1007.7 |
| 20260503214844 | 50 | 217 | 1.7 | 3.5 | 0.00 | 0.04 | 0.00 | 45 | 1007.7 |
| 20260503214805 | 50 | 217 | 1.7 | 3.5 | 0.00 | 0.04 | 0.00 | 45 | 1007.7 |
| 20260503214708 | 50 | 273 | 0.9 | 3.5 | 0.00 | 0.04 | 0.00 | 47 | 1007.7 |
| 20260503214630 | 50 | 273 | 0.9 | 3.5 | 0.00 | 0.04 | 0.00 | 47 | 1007.7 |
| 20260503214435 | 50 | 317 | 0.0 | 3.5 | 0.00 | 0.04 | 0.00 | 45 | 1007.7 |
| 20260503214336 | 50 | 317 | 0.9 | 3.5 | 0.00 | 0.04 | 0.00 | 45 | 1007.7 |
| 20260503214240 | 50 | 317 | 1.7 | 3.5 | 0.00 | 0.04 | 0.00 | 45 | 1007.7 |
| 20260503214201 | 50 | 317 | 1.7 | 3.5 | 0.00 | 0.04 | 0.00 | 45 | 1007.7 |
| 20260503214123 | 50 | 323 | 1.7 | 3.5 | 0.00 | 0.04 | 0.00 | 45 | 1007.7 |
| 20260503213930 | 50 | 336 | 2.6 | 3.5 | 0.00 | 0.04 | 0.00 | 45 | 1007.7 |
| 20260503213853 | 50 | 330 | 2.6 | 3.5 | 0.00 | 0.04 | 0.00 | 45 | 1007.7 |
| 20260503213755 | 50 | 330 | 1.7 | 3.5 | 0.00 | 0.04 | 0.00 | 46 | 1007.7 |
| 20260503213637 | 50 | 319 | 1.7 | 2.6 | 0.00 | 0.04 | 0.00 | 45 | 1007.6 |
| 20260503213540 | 50 | 319 | 1.7 | 2.6 | 0.00 | 0.04 | 0.00 | 46 | 1007.7 |
| 20260503213501 | 50 | 319 | 0.9 | 2.6 | 0.00 | 0.04 | 0.00 | 47 | 1007.7 |
| 20260503213424 | 50 | 296 | 0.9 | 2.6 | 0.00 | 0.04 | 0.00 | 47 | 1007.6 |
| 20260503213254 | 50 | 206 | 0.9 | 2.6 | 0.00 | 0.04 | 0.00 | 47 | 1007.6 |
| 20260503213116 | 50 | 217 | 0.0 | 3.5 | 0.00 | 0.04 | 0.00 | 47 | 1007.6 |
| 20260503213037 | 50 | 217 | 0.0 | 3.5 | 0.00 | 0.04 | 0.00 | 46 | 1007.6 |
| 20260503212845 | 50 | 217 | 1.7 | 3.5 | 0.00 | 0.04 | 0.00 | 45 | 1007.6 |
| 20260503212739 | 50 | 217 | 1.7 | 3.5 | 0.00 | 0.04 | 0.00 | 45 | 1007.6 |
| 20260503212613 | 50 | 242 | 0.9 | 3.5 | 0.00 | 0.04 | 0.00 | 45 | 1007.6 |
| 20260503212536 | 50 | 298 | 0.9 | 3.5 | 0.00 | 0.04 | 0.00 | 44 | 1007.6 |
| 20260503212338 | 50 | 240 | 2.6 | 3.5 | 0.00 | 0.04 | 0.00 | 45 | 1007.6 |
| 20260503212300 | 50 | 232 | 2.6 | 3.5 | 0.00 | 0.04 | 0.00 | 45 | 1007.6 |
| 20260503212141 | 50 | 219 | 1.7 | 3.5 | 0.00 | 0.04 | 0.00 | 44 | 1007.6 |
| 20260503212104 | 50 | 198 | 1.7 | 3.5 | 0.00 | 0.04 | 0.00 | 45 | 1007.6 |
| 20260503212024 | 50 | 257 | 1.7 | 3.5 | 0.00 | 0.04 | 0.00 | 46 | 1007.6 |
| 20260503211827 | 50 | 10 | 1.7 | 3.5 | 0.00 | 0.04 | 0.00 | 46 | 1007.6 |
| 20260503211748 | 50 | 10 | 0.9 | 3.5 | 0.00 | 0.04 | 0.00 | 47 | 1007.6 |
| 20260503211632 | 50 | 326 | 0.0 | 2.6 | 0.00 | 0.04 | 0.00 | 46 | 1007.6 |
| 20260503211559 | 50 | 326 | 0.9 | 2.6 | 0.00 | 0.04 | 0.00 | 47 | 1007.6 |
| 20260503211521 | 50 | 326 | 0.9 | 2.6 | 0.00 | 0.04 | 0.00 | 47 | 1007.6 |
| 20260503211323 | 50 | 326 | 0.9 | 2.6 | 0.00 | 0.04 | 0.00 | 48 | 1007.5 |
| 20260503211243 | 50 | 326 | 0.9 | 2.6 | 0.00 | 0.04 | 0.00 | 47 | 1007.5 |
| 20260503211126 | 50 | 325 | 0.9 | 2.6 | 0.00 | 0.04 | 0.00 | 45 | 1007.5 |
| 20260503211047 | 50 | 325 | 1.7 | 2.6 | 0.00 | 0.04 | 0.00 | 45 | 1007.5 |
| 20260503210923 | 50 | 325 | 1.7 | 2.6 | 0.00 | 0.04 | 0.00 | 45 | 1007.6 |
| 20260503210817 | 50 | 325 | 0.9 | 2.6 | 0.00 | 0.04 | 0.00 | 47 | 1007.6 |
| 20260503210753 | 50 | 325 | 0.9 | 2.6 | 0.00 | 0.04 | 0.00 | 48 | 1007.6 |
| 20260503210534 | 50 | 306 | 0.9 | 2.6 | 0.00 | 0.04 | 0.00 | 47 | 1007.6 |
| 20260503210457 | 50 | 306 | 0.9 | 2.6 | 0.00 | 0.04 | 0.00 | 46 | 1007.6 |
| 20260503210400 | 50 | 306 | 1.7 | 2.6 | 0.00 | 0.04 | 0.00 | 46 | 1007.6 |
| 20260503210323 | 50 | 293 | 0.9 | 2.6 | 0.00 | 0.04 | 0.00 | 47 | 1007.6 |
| 20260503210126 | 50 | 334 | 0.0 | 2.6 | 0.00 | 0.04 | 0.00 | 49 | 1007.6 |
| 20260503210029 | 50 | 334 | 0.9 | 2.6 | 0.00 | 0.04 | 0.00 | 48 | 1007.6 |
| 20260503205931 | 50 | 331 | 0.9 | 2.6 | 0.00 | 0.04 | 0.00 | 48 | 1007.5 |
| 20260503205853 | 50 | 338 | 0.9 | 2.6 | 0.00 | 0.04 | 0.00 | 47 | 1007.5 |
| 20260503205815 | 50 | 317 | 0.9 | 2.6 | 0.00 | 0.04 | 0.00 | 47 | 1007.6 |
| 20260503205623 | 50 | 317 | 0.9 | 2.6 | 0.00 | 0.04 | 0.00 | 48 | 1007.6 |
| 20260503205527 | 49 | 317 | 0.9 | 2.6 | 0.00 | 0.04 | 0.00 | 47 | 1007.6 |
| 20260503205429 | 49 | 319 | 0.9 | 3.5 | 0.00 | 0.04 | 0.00 | 47 | 1007.6 |
| 20260503205352 | 49 | 319 | 1.7 | 5.2 | 0.00 | 0.04 | 0.00 | 47 | 1007.6 |
| 20260503205312 | 49 | 333 | 1.7 | 5.2 | 0.00 | 0.04 | 0.00 | 48 | 1007.6 |
| 20260503205217 | 49 | 87 | 0.9 | 5.2 | 0.00 | 0.04 | 0.00 | 47 | 1007.6 |
| 20260503205138 | 49 | 281 | 0.0 | 5.2 | 0.00 | 0.04 | 0.00 | 47 | 1007.6 |
| 20260503205009 | 49 | 302 | 0.9 | 5.2 | 0.00 | 0.04 | 0.00 | 47 | 1007.7 |
| 20260503204925 | 49 | 309 | 0.9 | 5.2 | 0.00 | 0.04 | 0.00 | 46 | 1007.6 |
| 20260503204723 | 49 | 342 | 1.7 | 5.2 | 0.00 | 0.04 | 0.00 | 46 | 1007.7 |
| 20260503204641 | 49 | 342 | 2.6 | 7.8 | 0.00 | 0.04 | 0.00 | 46 | 1007.7 |
| 20260503204511 | 49 | 322 | 2.6 | 7.8 | 0.00 | 0.04 | 0.00 | 47 | 1007.7 |
| 20260503204434 | 49 | 325 | 2.6 | 7.8 | 0.00 | 0.04 | 0.00 | 47 | 1007.6 |
| 20260503204236 | 49 | 329 | 1.7 | 7.8 | 0.00 | 0.04 | 0.00 | 48 | 1007.6 |
| 20260503204159 | 49 | 331 | 1.7 | 7.8 | 0.00 | 0.04 | 0.00 | 47 | 1007.6 |
| 20260503204023 | 49 | 332 | 3.5 | 7.8 | 0.00 | 0.04 | 0.00 | 46 | 1007.7 |
| 20260503203937 | 49 | 348 | 4.3 | 7.8 | 0.00 | 0.04 | 0.00 | 46 | 1007.7 |
| 20260503203726 | 49 | 9 | 3.5 | 7.0 | 0.00 | 0.04 | 0.00 | 46 | 1007.6 |
| 20260503203641 | 49 | 355 | 1.7 | 8.7 | 0.00 | 0.04 | 0.00 | 47 | 1007.6 |
| 20260503203453 | 49 | 313 | 1.7 | 8.7 | 0.00 | 0.04 | 0.00 | 48 | 1007.6 |
| 20260503203355 | 49 | 304 | 1.7 | 8.7 | 0.00 | 0.04 | 0.00 | 48 | 1007.6 |
| 20260503203316 | 49 | 296 | 2.6 | 8.7 | 0.00 | 0.04 | 0.00 | 47 | 1007.6 |
| 20260503203138 | 49 | 321 | 4.3 | 8.7 | 0.00 | 0.04 | 0.00 | 46 | 1007.6 |
| 20260503203100 | 49 | 340 | 3.5 | 8.7 | 0.00 | 0.04 | 0.00 | 46 | 1007.6 |
| 20260503203016 | 49 | 331 | 3.5 | 8.7 | 0.00 | 0.04 | 0.00 | 47 | 1007.6 |
| 20260503202734 | 49 | 355 | 4.3 | 7.8 | 0.00 | 0.04 | 0.00 | 48 | 1007.7 |
| 20260503202635 | 49 | 327 | 4.3 | 7.8 | 0.00 | 0.04 | 0.00 | 47 | 1007.7 |
| 20260503202437 | 49 | 311 | 4.3 | 7.8 | 0.00 | 0.04 | 0.00 | 47 | 1007.7 |
| 20260503202400 | 49 | 347 | 4.3 | 7.8 | 0.00 | 0.04 | 0.00 | 48 | 1007.7 |
| 20260503202247 | 49 | 336 | 5.2 | 7.8 | 0.00 | 0.04 | 0.00 | 48 | 1007.7 |
| 20260503202149 | 49 | 333 | 5.2 | 7.8 | 0.00 | 0.04 | 0.00 | 48 | 1007.7 |
| 20260503202025 | 49 | 338 | 5.2 | 7.8 | 0.00 | 0.04 | 0.00 | 46 | 1007.8 |
| 20260503201928 | 49 | 337 | 5.2 | 7.8 | 0.00 | 0.04 | 0.00 | 47 | 1007.8 |
| 20260503201850 | 49 | 331 | 5.2 | 7.8 | 0.00 | 0.04 | 0.00 | 46 | 1007.8 |
| 20260503201811 | 49 | 347 | 6.1 | 7.8 | 0.00 | 0.04 | 0.00 | 46 | 1007.8 |
| 20260503201632 | 50 | 355 | 5.2 | 7.8 | 0.00 | 0.04 | 0.00 | 47 | 1007.8 |
| 20260503201555 | 50 | 309 | 4.3 | 7.8 | 0.00 | 0.04 | 0.00 | 47 | 1007.8 |
| 20260503201519 | 50 | 338 | 3.5 | 7.8 | 0.00 | 0.04 | 0.00 | 47 | 1007.8 |
| 20260503201343 | 50 | 348 | 2.6 | 7.8 | 0.00 | 0.04 | 0.00 | 46 | 1007.8 |
| 20260503201244 | 50 | 360 | 3.5 | 7.8 | 0.00 | 0.04 | 0.00 | 46 | 1007.8 |
| 20260503201147 | 50 | 348 | 3.5 | 7.8 | 0.00 | 0.04 | 0.00 | 47 | 1007.8 |
| 20260503201108 | 50 | 346 | 3.5 | 7.8 | 0.00 | 0.04 | 0.00 | 47 | 1007.8 |
| 20260503201007 | 50 | 5 | 3.5 | 7.8 | 0.00 | 0.04 | 0.00 | 47 | 1007.8 |
| 20260503200910 | 50 | 355 | 4.3 | 7.8 | 0.00 | 0.04 | 0.00 | 47 | 1007.8 |
| 20260503200832 | 50 | 327 | 4.3 | 7.8 | 0.00 | 0.04 | 0.00 | 48 | 1007.7 |
| 20260503200636 | 50 | 27 | 1.7 | 7.0 | 0.00 | 0.04 | 0.00 | 48 | 1007.7 |
| 20260503200538 | 50 | 348 | 3.5 | 7.0 | 0.00 | 0.04 | 0.00 | 49 | 1007.7 |
| 20260503200422 | 50 | 350 | 3.5 | 7.0 | 0.00 | 0.04 | 0.00 | 47 | 1007.8 |
| 20260503200348 | 50 | 53 | 3.5 | 6.1 | 0.00 | 0.04 | 0.00 | 48 | 1007.9 |
| 20260503200230 | 50 | 24 | 3.5 | 5.2 | 0.00 | 0.04 | 0.00 | 48 | 1007.9 |
| 20260503200153 | 50 | 329 | 3.5 | 5.2 | 0.00 | 0.04 | 0.00 | 48 | 1007.9 |
| 20260503200112 | 50 | 349 | 3.5 | 5.2 | 0.00 | 0.04 | 0.00 | 48 | 1007.9 |
| 20260503195922 | 50 | 315 | 2.6 | 5.2 | 0.00 | 0.04 | 0.00 | 49 | 1007.9 |
| 20260503195836 | 50 | 348 | 2.6 | 7.0 | 0.00 | 0.04 | 0.00 | 48 | 1008.0 |
| 20260503195705 | 50 | 339 | 3.5 | 7.8 | 0.00 | 0.04 | 0.00 | 49 | 1008.0 |
| 20260503195627 | 49 | 340 | 2.6 | 7.8 | 0.00 | 0.04 | 0.00 | 48 | 1007.9 |
| 20260503195429 | 49 | 346 | 2.6 | 7.8 | 0.00 | 0.04 | 0.00 | 47 | 1008.0 |
| 20260503195355 | 49 | 317 | 3.5 | 7.8 | 0.00 | 0.04 | 0.00 | 49 | 1008.0 |
| 20260503195237 | 49 | 205 | 2.6 | 8.7 | 0.00 | 0.04 | 0.00 | 48 | 1008.0 |
| 20260503195204 | 49 | 224 | 2.6 | 8.7 | 0.00 | 0.04 | 0.00 | 48 | 1008.0 |
| 20260503195118 | 49 | 271 | 3.5 | 8.7 | 0.00 | 0.04 | 0.00 | 48 | 1008.0 |
| 20260503194948 | 49 | 319 | 3.5 | 8.7 | 0.00 | 0.04 | 0.00 | 51 | 1008.0 |
| 20260503194850 | 49 | 325 | 2.6 | 8.7 | 0.00 | 0.04 | 0.00 | 47 | 1008.0 |
| 20260503194804 | 49 | 14 | 0.9 | 8.7 | 0.00 | 0.04 | 0.00 | 48 | 1008.0 |
| 20260503194634 | 49 | 304 | 3.5 | 8.7 | 0.00 | 0.04 | 0.00 | 48 | 1008.1 |
| 20260503194535 | 49 | 324 | 4.3 | 8.7 | 0.00 | 0.04 | 0.00 | 48 | 1008.2 |
| 20260503194406 | 49 | 325 | 2.6 | 4.3 | 0.00 | 0.04 | 0.00 | 48 | 1008.2 |
| 20260503194240 | 49 | 317 | 1.7 | 4.3 | 0.00 | 0.04 | 0.00 | 48 | 1008.2 |
| 20260503194123 | 49 | 274 | 1.7 | 4.3 | 0.00 | 0.04 | 0.00 | 50 | 1008.2 |
| 20260503194046 | 49 | 257 | 1.7 | 4.3 | 0.00 | 0.04 | 0.00 | 50 | 1008.2 |
| 20260503194012 | 49 | 284 | 1.7 | 4.3 | 0.00 | 0.04 | 0.00 | 49 | 1008.2 |
| 20260503193915 | 49 | 321 | 1.7 | 4.3 | 0.00 | 0.04 | 0.00 | 49 | 1008.2 |
| 20260503193838 | 49 | 311 | 1.7 | 4.3 | 0.00 | 0.04 | 0.00 | 50 | 1008.2 |
| 20260503193707 | 49 | 232 | 0.9 | 4.3 | 0.00 | 0.04 | 0.00 | 49 | 1008.2 |
| 20260503193559 | 49 | 232 | 1.7 | 4.3 | 0.00 | 0.04 | 0.00 | 48 | 1008.2 |
| 20260503193430 | 49 | 217 | 1.7 | 7.8 | 0.00 | 0.04 | 0.00 | 50 | 1008.3 |
| 20260503193329 | 49 | 234 | 0.9 | 7.8 | 0.00 | 0.04 | 0.00 | 51 | 1008.2 |
| 20260503193132 | 48 | 247 | 1.7 | 7.8 | 0.00 | 0.04 | 0.00 | 49 | 1008.3 |
| 20260503193054 | 48 | 226 | 2.6 | 7.8 | 0.00 | 0.04 | 0.00 | 49 | 1008.3 |
| 20260503192937 | 49 | 240 | 2.6 | 8.7 | 0.00 | 0.04 | 0.00 | 49 | 1008.3 |
| 20260503192900 | 48 | 286 | 2.6 | 8.7 | 0.00 | 0.04 | 0.00 | 49 | 1008.3 |
| 20260503192825 | 49 | 13 | 2.6 | 8.7 | 0.00 | 0.04 | 0.00 | 48 | 1008.4 |
| 20260503192627 | 49 | 304 | 3.5 | 8.7 | 0.00 | 0.04 | 0.00 | 48 | 1008.4 |
| 20260503192550 | 49 | 331 | 3.5 | 8.7 | 0.00 | 0.04 | 0.00 | 48 | 1008.4 |
| 20260503192452 | 49 | 290 | 2.6 | 8.7 | 0.00 | 0.04 | 0.00 | 49 | 1008.4 |
| 20260503192353 | 49 | 277 | 2.6 | 8.7 | 0.00 | 0.04 | 0.00 | 50 | 1008.4 |
| 20260503192314 | 49 | 266 | 3.5 | 8.7 | 0.00 | 0.04 | 0.00 | 49 | 1008.3 |
| 20260503192218 | 49 | 286 | 4.3 | 8.7 | 0.00 | 0.04 | 0.00 | 48 | 1008.4 |
| 20260503192120 | 49 | 216 | 4.3 | 8.7 | 0.00 | 0.04 | 0.00 | 48 | 1008.3 |
| 20260503191923 | 49 | 314 | 1.7 | 7.0 | 0.00 | 0.04 | 0.00 | 49 | 1008.4 |
| 20260503191825 | 49 | 310 | 3.5 | 7.0 | 0.00 | 0.04 | 0.00 | 49 | 1008.4 |
| 20260503191732 | 49 | 313 | 2.6 | 7.0 | 0.00 | 0.04 | 0.00 | 49 | 1008.4 |
| 20260503191653 | 49 | 315 | 1.7 | 7.0 | 0.00 | 0.04 | 0.00 | 49 | 1008.4 |
| 20260503191615 | 49 | 184 | 2.6 | 5.2 | 0.00 | 0.04 | 0.00 | 50 | 1008.4 |
| 20260503191516 | 49 | 306 | 2.6 | 5.2 | 0.00 | 0.04 | 0.00 | 50 | 1008.4 |
| 20260503191419 | 48 | 330 | 3.5 | 5.2 | 0.00 | 0.04 | 0.00 | 50 | 1008.4 |
| 20260503191340 | 48 | 337 | 3.5 | 7.0 | 0.00 | 0.04 | 0.00 | 51 | 1008.4 |
| 20260503191210 | 48 | 341 | 2.6 | 7.0 | 0.00 | 0.04 | 0.00 | 51 | 1008.5 |
| 20260503191124 | 48 | 327 | 1.7 | 7.0 | 0.00 | 0.04 | 0.00 | 51 | 1008.5 |
| 20260503190935 | 48 | 300 | 1.7 | 7.0 | 0.00 | 0.04 | 0.00 | 50 | 1008.5 |
| 20260503190850 | 48 | 355 | 2.6 | 7.0 | 0.00 | 0.04 | 0.00 | 49 | 1008.5 |
| 20260503190719 | 48 | 311 | 4.3 | 7.8 | 0.00 | 0.04 | 0.00 | 50 | 1008.5 |
| 20260503190642 | 48 | 341 | 2.6 | 9.6 | 0.00 | 0.04 | 0.00 | 50 | 1008.6 |
| 20260503190427 | 48 | 17 | 2.6 | 9.6 | 0.00 | 0.04 | 0.00 | 50 | 1008.6 |
| 20260503190349 | 48 | 308 | 2.6 | 9.6 | 0.00 | 0.04 | 0.00 | 50 | 1008.6 |
| 20260503190253 | 48 | 336 | 2.6 | 9.6 | 0.00 | 0.04 | 0.00 | 50 | 1008.6 |
| 20260503190214 | 48 | 256 | 2.6 | 9.6 | 0.00 | 0.04 | 0.00 | 50 | 1008.6 |
| 20260503190025 | 48 | 319 | 5.2 | 9.6 | 0.00 | 0.04 | 0.00 | 49 | 1008.6 |
| 20260503185929 | 48 | 338 | 7.0 | 9.6 | 0.00 | 0.04 | 0.00 | 49 | 1008.6 |
| 20260503185852 | 48 | 342 | 6.1 | 9.6 | 0.00 | 0.04 | 0.00 | 49 | 1008.6 |
| 20260503185755 | 48 | 5 | 4.3 | 8.7 | 0.00 | 0.04 | 0.00 | 49 | 1008.6 |
| 20260503185635 | 48 | 291 | 4.3 | 8.7 | 0.00 | 0.04 | 0.00 | 49 | 1008.6 |
| 20260503185522 | 48 | 323 | 4.3 | 8.7 | 0.00 | 0.04 | 0.00 | 48 | 1008.6 |
| 20260503185445 | 48 | 315 | 3.5 | 8.7 | 0.00 | 0.04 | 0.00 | 48 | 1008.6 |
| 20260503185341 | 48 | 350 | 2.6 | 8.7 | 0.00 | 0.04 | 0.00 | 48 | 1008.6 |
| 20260503185304 | 49 | 38 | 4.3 | 10.4 | 0.00 | 0.04 | 0.00 | 49 | 1008.6 |
| 20260503185136 | 49 | 355 | 5.2 | 10.4 | 0.00 | 0.04 | 0.00 | 48 | 1008.6 |
| 20260503185020 | 49 | 35 | 4.3 | 10.4 | 0.00 | 0.04 | 0.00 | 49 | 1008.5 |
| 20260503184954 | 49 | 360 | 3.5 | 12.2 | 0.00 | 0.04 | 0.00 | 50 | 1008.6 |
| 20260503184737 | 48 | 296 | 2.6 | 12.2 | 0.00 | 0.04 | 0.00 | 51 | 1008.6 |
| 20260503184642 | 48 | 259 | 2.6 | 12.2 | 0.00 | 0.04 | 0.00 | 50 | 1008.6 |
| 20260503184536 | 48 | 203 | 3.5 | 12.2 | 0.00 | 0.04 | 0.00 | 51 | 1008.7 |
| 20260503184459 | 48 | 196 | 3.5 | 12.2 | 0.00 | 0.04 | 0.00 | 52 | 1008.7 |
| 20260503184414 | 48 | 283 | 4.3 | 12.2 | 0.00 | 0.04 | 0.00 | 50 | 1008.6 |
| 20260503184243 | 48 | 275 | 5.2 | 12.2 | 0.00 | 0.04 | 0.00 | 49 | 1008.7 |
| 20260503184146 | 48 | 309 | 4.3 | 12.2 | 0.00 | 0.04 | 0.00 | 49 | 1008.7 |
| 20260503184029 | 48 | 206 | 1.7 | 7.0 | 0.00 | 0.04 | 0.00 | 51 | 1008.7 |
| 20260503183951 | 48 | 286 | 1.7 | 7.0 | 0.00 | 0.04 | 0.00 | 50 | 1008.7 |
| 20260503183913 | 48 | 259 | 1.7 | 7.0 | 0.00 | 0.04 | 0.00 | 50 | 1008.7 |
| 20260503183816 | 48 | 272 | 2.6 | 7.0 | 0.00 | 0.04 | 0.00 | 50 | 1008.8 |
| 20260503183742 | 48 | 290 | 2.6 | 7.0 | 0.00 | 0.04 | 0.00 | 50 | 1008.7 |
| 20260503183613 | 48 | 342 | 3.5 | 7.0 | 0.00 | 0.04 | 0.00 | 50 | 1008.7 |
| 20260503183529 | 47 | 338 | 3.5 | 7.0 | 0.00 | 0.04 | 0.00 | 51 | 1008.8 |
| 20260503183338 | 47 | 306 | 1.7 | 6.1 | 0.00 | 0.04 | 0.00 | 51 | 1008.8 |
| 20260503183253 | 47 | 345 | 2.6 | 6.1 | 0.00 | 0.04 | 0.00 | 50 | 1008.8 |
| 20260503183122 | 47 | 246 | 2.6 | 6.1 | 0.00 | 0.04 | 0.00 | 51 | 1008.8 |
| 20260503183044 | 47 | 296 | 2.6 | 7.8 | 0.00 | 0.04 | 0.00 | 51 | 1008.8 |
| 20260503182908 | 47 | 282 | 2.6 | 7.8 | 0.00 | 0.04 | 0.00 | 51 | 1008.8 |
| 20260503182830 | 47 | 283 | 2.6 | 7.8 | 0.00 | 0.04 | 0.00 | 51 | 1008.7 |
| 20260503182634 | 47 | 252 | 3.5 | 7.8 | 0.00 | 0.04 | 0.00 | 50 | 1008.8 |
| 20260503182540 | 47 | 248 | 2.6 | 7.8 | 0.00 | 0.04 | 0.00 | 50 | 1008.8 |
| 20260503182423 | 47 | 298 | 2.6 | 7.8 | 0.00 | 0.04 | 0.00 | 51 | 1008.8 |
| 20260503182347 | 47 | 306 | 3.5 | 7.8 | 0.00 | 0.04 | 0.00 | 51 | 1008.8 |
| 20260503182310 | 47 | 343 | 3.5 | 7.8 | 0.00 | 0.04 | 0.00 | 51 | 1008.8 |
| 20260503182130 | 47 | 152 | 2.6 | 7.8 | 0.00 | 0.04 | 0.00 | 51 | 1008.8 |
| 20260503182054 | 47 | 242 | 1.7 | 7.8 | 0.00 | 0.04 | 0.00 | 52 | 1008.8 |
| 20260503182009 | 47 | 271 | 2.6 | 8.7 | 0.00 | 0.04 | 0.00 | 52 | 1008.8 |
| 20260503181910 | 47 | 305 | 3.5 | 11.3 | 0.00 | 0.04 | 0.00 | 51 | 1008.8 |
| 20260503181811 | 47 | 340 | 2.6 | 11.3 | 0.00 | 0.04 | 0.00 | 51 | 1008.8 |
| 20260503181522 | 47 | 270 | 3.5 | 11.3 | 0.00 | 0.04 | 0.00 | 50 | 1008.8 |
| 20260503181448 | 47 | 329 | 4.3 | 11.3 | 0.00 | 0.04 | 0.00 | 49 | 1008.8 |
| 20260503181352 | 47 | 267 | 5.2 | 11.3 | 0.00 | 0.04 | 0.00 | 50 | 1008.8 |
| 20260503181233 | 47 | 275 | 6.1 | 11.3 | 0.00 | 0.04 | 0.00 | 49 | 1008.8 |
| 20260503181129 | 47 | 322 | 7.0 | 11.3 | 0.00 | 0.04 | 0.00 | 49 | 1008.8 |
| 20260503181051 | 47 | 329 | 6.1 | 11.3 | 0.00 | 0.04 | 0.00 | 50 | 1008.8 |
| 20260503180922 | 47 | 328 | 5.2 | 9.6 | 0.00 | 0.04 | 0.00 | 49 | 1008.8 |
| 20260503180816 | 47 | 326 | 6.1 | 9.6 | 0.00 | 0.04 | 0.00 | 50 | 1008.8 |
| 20260503180624 | 47 | 325 | 7.0 | 9.6 | 0.00 | 0.04 | 0.00 | 50 | 1008.8 |
| 20260503180525 | 47 | 334 | 7.0 | 9.6 | 0.00 | 0.04 | 0.00 | 50 | 1008.7 |
| 20260503180328 | 48 | 341 | 6.1 | 9.6 | 0.00 | 0.04 | 0.00 | 49 | 1008.6 |
| 20260503180255 | 48 | 323 | 6.1 | 9.6 | 0.00 | 0.04 | 0.00 | 49 | 1008.6 |
| 20260503180159 | 48 | 329 | 6.1 | 9.6 | 0.00 | 0.04 | 0.00 | 50 | 1008.7 |
| 20260503180121 | 48 | 336 | 6.1 | 9.6 | 0.00 | 0.04 | 0.00 | 50 | 1008.6 |
| 20260503175924 | 48 | 341 | 4.3 | 7.8 | 0.00 | 0.04 | 0.00 | 50 | 1008.6 |
| 20260503175846 | 48 | 327 | 3.5 | 8.7 | 0.00 | 0.04 | 0.00 | 50 | 1008.6 |
| 20260503175714 | 48 | 317 | 2.6 | 9.6 | 0.00 | 0.04 | 0.00 | 50 | 1008.6 |
| 20260503175636 | 48 | 319 | 2.6 | 9.6 | 0.00 | 0.04 | 0.00 | 50 | 1008.6 |
| 20260503175438 | 48 | 265 | 1.7 | 9.6 | 0.00 | 0.04 | 0.00 | 50 | 1008.6 |
| 20260503175402 | 48 | 36 | 1.7 | 10.4 | 0.00 | 0.04 | 0.00 | 50 | 1008.6 |
| 20260503175304 | 48 | 281 | 4.3 | 10.4 | 0.00 | 0.04 | 0.00 | 50 | 1008.7 |
| 20260503175149 | 48 | 296 | 6.1 | 10.4 | 0.00 | 0.04 | 0.00 | 50 | 1008.7 |
| 20260503175031 | 48 | 344 | 6.1 | 10.4 | 0.00 | 0.04 | 0.00 | 49 | 1008.7 |
| 20260503174952 | 48 | 360 | 5.2 | 10.4 | 0.00 | 0.04 | 0.00 | 51 | 1008.7 |
| 20260503174905 | 48 | 341 | 5.2 | 10.4 | 0.00 | 0.04 | 0.00 | 50 | 1008.7 |
| 20260503174808 | 48 | 331 | 6.1 | 10.4 | 0.00 | 0.04 | 0.00 | 50 | 1008.7 |
| 20260503174709 | 48 | 336 | 6.1 | 10.4 | 0.00 | 0.04 | 0.00 | 50 | 1008.8 |
| 20260503174517 | 48 | 21 | 7.0 | 9.6 | 0.00 | 0.04 | 0.00 | 51 | 1008.8 |
| 20260503174418 | 48 | 342 | 5.2 | 9.6 | 0.00 | 0.04 | 0.00 | 51 | 1008.8 |
| 20260503174239 | 47 | 10 | 4.3 | 10.4 | 0.00 | 0.04 | 0.00 | 52 | 1008.8 |
| 20260503174202 | 47 | 19 | 4.3 | 10.4 | 0.00 | 0.04 | 0.00 | 52 | 1008.8 |
| 20260503174117 | 47 | 343 | 3.5 | 10.4 | 0.00 | 0.04 | 0.00 | 51 | 1008.8 |
| 20260503173947 | 47 | 308 | 2.6 | 11.3 | 0.00 | 0.04 | 0.00 | 50 | 1008.9 |
| 20260503173853 | 47 | 327 | 2.6 | 11.3 | 0.00 | 0.04 | 0.00 | 51 | 1008.8 |
| 20260503173634 | 47 | 15 | 7.0 | 11.3 | 0.00 | 0.04 | 0.00 | 50 | 1008.9 |
| 20260503173556 | 47 | 13 | 7.8 | 11.3 | 0.00 | 0.04 | 0.00 | 51 | 1008.9 |
| 20260503173500 | 47 | 347 | 7.8 | 11.3 | 0.00 | 0.04 | 0.00 | 51 | 1008.9 |
| 20260503173423 | 47 | 336 | 7.8 | 11.3 | 0.00 | 0.04 | 0.00 | 51 | 1008.9 |
| 20260503173227 | 47 | 360 | 7.8 | 11.3 | 0.00 | 0.04 | 0.00 | 50 | 1008.9 |
| 20260503173129 | 47 | 323 | 5.2 | 11.3 | 0.00 | 0.04 | 0.00 | 50 | 1008.8 |
| 20260503173031 | 47 | 325 | 4.3 | 9.6 | 0.00 | 0.04 | 0.00 | 51 | 1008.8 |
| 20260503172933 | 47 | 333 | 5.2 | 9.6 | 0.00 | 0.04 | 0.00 | 50 | 1008.9 |
| 20260503172859 | 47 | 311 | 5.2 | 9.6 | 0.00 | 0.04 | 0.00 | 51 | 1008.9 |
| 20260503172804 | 47 | 355 | 4.3 | 9.6 | 0.00 | 0.04 | 0.00 | 50 | 1008.9 |
| 20260503172725 | 47 | 355 | 5.2 | 9.6 | 0.00 | 0.04 | 0.00 | 50 | 1008.9 |
| 20260503172528 | 47 | 19 | 6.1 | 9.6 | 0.00 | 0.04 | 0.00 | 52 | 1008.9 |
| 20260503172429 | 47 | 9 | 5.2 | 9.6 | 0.00 | 0.04 | 0.00 | 51 | 1008.8 |
| 20260503172332 | 47 | 360 | 5.2 | 9.6 | 0.00 | 0.04 | 0.00 | 51 | 1008.9 |
| 20260503172254 | 47 | 350 | 5.2 | 9.6 | 0.00 | 0.04 | 0.00 | 52 | 1008.9 |
| 20260503172216 | 47 | 340 | 6.1 | 12.2 | 0.00 | 0.04 | 0.00 | 52 | 1008.9 |
| 20260503172039 | 47 | 348 | 6.1 | 12.2 | 0.00 | 0.04 | 0.00 | 52 | 1008.9 |
| 20260503171938 | 47 | 345 | 6.1 | 12.2 | 0.00 | 0.04 | 0.00 | 51 | 1008.9 |
| 20260503171839 | 47 | 355 | 5.2 | 12.2 | 0.00 | 0.04 | 0.00 | 52 | 1008.9 |
| 20260503171733 | 47 | 334 | 5.2 | 12.2 | 0.00 | 0.04 | 0.00 | 52 | 1009.0 |
| 20260503171656 | 47 | 329 | 4.3 | 12.2 | 0.00 | 0.04 | 0.00 | 52 | 1009.0 |
| 20260503171559 | 47 | 309 | 4.3 | 12.2 | 0.00 | 0.04 | 0.00 | 52 | 1009.0 |
| 20260503171521 | 47 | 340 | 5.2 | 12.2 | 0.00 | 0.04 | 0.00 | 51 | 1009.0 |
| 20260503171352 | 47 | 338 | 6.1 | 12.2 | 0.00 | 0.04 | 0.00 | 52 | 1009.0 |
| 20260503171133 | 47 | 355 | 4.3 | 7.0 | 0.00 | 0.04 | 0.00 | 52 | 1009.0 |
| 20260503171056 | 47 | 313 | 4.3 | 7.0 | 0.00 | 0.04 | 0.00 | 52 | 1009.0 |
| 20260503170943 | 47 | 321 | 4.3 | 9.6 | 0.00 | 0.04 | 0.00 | 51 | 1009.0 |
| 20260503170845 | 47 | 355 | 4.3 | 9.6 | 0.00 | 0.04 | 0.00 | 52 | 1009.1 |
| 20260503170805 | 47 | 323 | 4.3 | 9.6 | 0.00 | 0.04 | 0.00 | 51 | 1009.1 |
| 20260503170721 | 47 | 338 | 4.3 | 9.6 | 0.00 | 0.04 | 0.00 | 51 | 1009.1 |
| 20260503170643 | 47 | 346 | 4.3 | 9.6 | 0.00 | 0.04 | 0.00 | 51 | 1009.1 |
| 20260503170513 | 47 | 341 | 4.3 | 9.6 | 0.00 | 0.04 | 0.00 | 51 | 1009.0 |
| 20260503170429 | 47 | 348 | 3.5 | 9.6 | 0.00 | 0.04 | 0.00 | 51 | 1009.0 |
| 20260503170259 | 47 | 292 | 4.3 | 9.6 | 0.00 | 0.04 | 0.00 | 51 | 1009.1 |
| 20260503170113 | 47 | 283 | 5.2 | 9.6 | 0.00 | 0.04 | 0.00 | 51 | 1009.1 |
| 20260503160155 | 46 | 291 | 8.7 | 13.9 | 0.00 | 0.04 | 0.00 | 51 | 1009.6 |
| 20260503160118 | 46 | 327 | 7.8 | 13.9 | 0.00 | 0.04 | 0.00 | 51 | 1009.7 |
| 20260503150826 | 49 | 355 | 7.8 | 11.3 | 0.00 | 0.04 | 0.00 | 50 | 1009.8 |
| 20260503150748 | 49 | 317 | 6.1 | 10.4 | 0.00 | 0.04 | 0.00 | 49 | 1009.8 |
| 20260503150631 | 49 | 329 | 5.2 | 10.4 | 0.00 | 0.04 | 0.00 | 50 | 1009.7 |
| 20260503150555 | 49 | 225 | 5.2 | 10.4 | 0.00 | 0.04 | 0.00 | 47 | 1009.7 |
| 20260503150522 | 49 | 296 | 5.2 | 10.4 | 0.00 | 0.04 | 0.00 | 49 | 1009.8 |
| 20260503150331 | 49 | 319 | 5.2 | 13.0 | 0.00 | 0.04 | 0.00 | 50 | 1009.7 |
| 20260503150232 | 49 | 26 | 5.2 | 13.0 | 0.00 | 0.04 | 0.00 | 48 | 1009.7 |
| 20260503150138 | 49 | 13 | 5.2 | 14.8 | 0.00 | 0.04 | 0.00 | 48 | 1009.7 |
| 20260503140234 | 47 | 360 | 3.5 | 13.9 | 0.00 | 0.04 | 0.00 | 45 | 1010.0 |
| 20260503140136 | 47 | 351 | 4.3 | 13.9 | 0.00 | 0.04 | 0.00 | 46 | 1010.0 |
| 20260503131343 | 45 | 355 | 4.3 | 9.6 | 0.00 | 0.04 | 0.00 | 16 | 1010.3 |
| 20260503131238 | 45 | 350 | 2.6 | 9.6 | 0.00 | 0.04 | 0.00 | 19 | 1010.4 |
| 20260503131157 | 45 | 360 | 3.5 | 9.6 | 0.00 | 0.04 | 0.00 | 23 | 1010.4 |
| 20260503131109 | 45 | 331 | 5.2 | 10.4 | 0.00 | 0.04 | 0.00 | 23 | 1010.4 |
| 20260503131028 | 45 | 310 | 6.1 | 10.4 | 0.00 | 0.04 | 0.00 | 20 | 1010.4 |
| 20260503130834 | 45 | 321 | 5.2 | 10.4 | 0.00 | 0.04 | 0.00 | 18 | 1010.4 |
| 20260503130726 | 45 | 303 | 5.2 | 10.4 | 0.00 | 0.04 | 0.00 | 17 | 1010.4 |
| 20260503130534 | 45 | 331 | 7.0 | 10.4 | 0.00 | 0.04 | 0.00 | 19 | 1010.4 |
| 20260503130444 | 45 | 16 | 7.8 | 10.4 | 0.00 | 0.04 | 0.00 | 12 | 1010.4 |
| 20260503130324 | 45 | 340 | 7.0 | 10.4 | 0.00 | 0.04 | 0.00 | 12 | 1010.4 |
| 20260503130239 | 45 | 345 | 5.2 | 9.6 | 0.00 | 0.04 | 0.00 | 10 | 1010.4 |
| 20260503120157 | 41 | 335 | 2.6 | 7.8 | 0.00 | 0.04 | 0.00 | 1 | 1010.5 |
| 20260503110730 | 39 | 277 | 0.0 | 0.9 | 0.00 | 0.05 | 0.00 | 1 | 1010.5 |
| 20260503110612 | 39 | 277 | 0.0 | 0.9 | 0.00 | 0.05 | 0.00 | 1 | 1010.5 |
| 20260503110534 | 39 | 277 | 0.0 | 0.9 | 0.00 | 0.05 | 0.00 | 1 | 1010.5 |
| 20260503110405 | 39 | 277 | 0.0 | 0.9 | 0.00 | 0.05 | 0.00 | 1 | 1010.5 |
| 20260503110318 | 39 | 277 | 0.0 | 0.9 | 0.00 | 0.05 | 0.00 | 1 | 1010.5 |
| 20260503110158 | 39 | 277 | 0.0 | 0.0 | 0.00 | 0.05 | 0.00 | 1 | 1010.5 |
| 20260503100229 | 38 | 355 | 0.0 | 0.0 | 0.00 | 0.05 | 0.00 | 1 | 1010.3 |
| 20260503100132 | 38 | 355 | 0.0 | 0.0 | 0.00 | 0.05 | 0.00 | 1 | 1010.3 |
| 20260503090512 | 38 | 355 | 0.0 | 0.0 | 0.00 | 0.05 | 0.00 | 1 | 1010.4 |
| 20260503090333 | 38 | 355 | 0.0 | 0.0 | 0.00 | 0.05 | 0.00 | 1 | 1010.4 |
| 20260503090257 | 38 | 355 | 0.0 | 0.0 | 0.00 | 0.05 | 0.00 | 1 | 1010.4 |
| 20260503090159 | 38 | 355 | 0.0 | 0.0 | 0.00 | 0.05 | 0.00 | 1 | 1010.4 |
| 20260503081625 | 39 | 355 | 0.0 | 0.0 | 0.00 | 0.05 | 0.00 | 1 | 1010.7 |
| 20260503081549 | 39 | 355 | 0.0 | 0.0 | 0.00 | 0.05 | 0.00 | 1 | 1010.7 |
| 20260503081504 | 39 | 355 | 0.0 | 0.0 | 0.00 | 0.05 | 0.00 | 1 | 1010.7 |
| 20260503081426 | 39 | 355 | 0.0 | 0.0 | 0.00 | 0.05 | 0.00 | 1 | 1010.7 |
| 20260503081229 | 39 | 355 | 0.0 | 0.0 | 0.00 | 0.05 | 0.00 | 1 | 1010.7 |
| 20260503081132 | 39 | 355 | 0.0 | 0.0 | 0.00 | 0.05 | 0.00 | 1 | 1010.7 |
| 20260503081027 | 39 | 355 | 0.0 | 0.0 | 0.00 | 0.05 | 0.00 | 1 | 1010.7 |
| 20260503080926 | 39 | 355 | 0.0 | 0.0 | 0.00 | 0.05 | 0.00 | 1 | 1010.7 |
| 20260503080829 | 39 | 355 | 0.0 | 0.0 | 0.00 | 0.05 | 0.00 | 1 | 1010.8 |
| 20260503080722 | 39 | 355 | 0.0 | 0.0 | 0.00 | 0.05 | 0.00 | 1 | 1010.8 |
| 20260503080647 | 39 | 355 | 0.0 | 0.0 | 0.00 | 0.05 | 0.00 | 1 | 1010.8 |
| 20260503080529 | 39 | 355 | 0.0 | 0.0 | 0.00 | 0.05 | 0.00 | 1 | 1010.8 |
| 20260503080451 | 39 | 355 | 0.0 | 0.0 | 0.00 | 0.05 | 0.00 | 1 | 1010.7 |
| 20260503080231 | 39 | 355 | 0.0 | 0.0 | 0.00 | 0.05 | 0.00 | 1 | 1010.8 |
| 20260503080154 | 39 | 355 | 0.0 | 0.0 | 0.00 | 0.05 | 0.00 | 1 | 1010.8 |
| 20260503080104 | 39 | 355 | 0.0 | 0.0 | 0.00 | 0.05 | 0.00 | 1 | 1010.7 |
| 20260503072910 | 39 | 355 | 0.0 | 0.0 | 0.00 | 0.05 | 0.00 | 1 | 1010.7 |
| 20260503072831 | 39 | 355 | 0.0 | 0.0 | 0.00 | 0.05 | 0.00 | 1 | 1010.7 |
| 20260503072634 | 39 | 355 | 0.0 | 0.0 | 0.00 | 0.05 | 0.00 | 1 | 1010.7 |
| 20260503072535 | 39 | 355 | 0.0 | 0.0 | 0.00 | 0.05 | 0.00 | 1 | 1010.7 |
| 20260503072438 | 39 | 355 | 0.0 | 0.0 | 0.00 | 0.05 | 0.00 | 1 | 1010.7 |
| 20260503072401 | 39 | 355 | 0.0 | 0.0 | 0.00 | 0.05 | 0.00 | 1 | 1010.7 |
| 20260503072322 | 39 | 355 | 0.0 | 0.0 | 0.00 | 0.05 | 0.00 | 1 | 1010.8 |
| 20260503072125 | 39 | 355 | 0.0 | 0.0 | 0.00 | 0.05 | 0.00 | 1 | 1010.7 |
| 20260503072052 | 39 | 355 | 0.0 | 0.0 | 0.00 | 0.05 | 0.00 | 1 | 1010.7 |
| 20260503071915 | 39 | 355 | 0.0 | 0.0 | 0.00 | 0.05 | 0.00 | 1 | 1010.7 |
| 20260503071839 | 39 | 355 | 0.0 | 0.0 | 0.00 | 0.05 | 0.00 | 1 | 1010.7 |
| 20260503071708 | 39 | 355 | 0.0 | 0.0 | 0.00 | 0.05 | 0.00 | 1 | 1010.7 |
| 20260503071631 | 39 | 355 | 0.0 | 0.0 | 0.00 | 0.05 | 0.00 | 1 | 1010.7 |
| 20260503071434 | 39 | 355 | 0.0 | 0.0 | 0.00 | 0.05 | 0.00 | 1 | 1010.7 |
| 20260503071357 | 39 | 355 | 0.0 | 0.0 | 0.00 | 0.05 | 0.00 | 1 | 1010.7 |
| 20260503071239 | 39 | 355 | 0.0 | 0.0 | 0.00 | 0.05 | 0.00 | 1 | 1010.7 |
| 20260503071159 | 39 | 355 | 0.0 | 0.0 | 0.00 | 0.05 | 0.00 | 1 | 1010.7 |
| 20260503071026 | 39 | 355 | 0.0 | 0.0 | 0.00 | 0.05 | 0.00 | 1 | 1010.7 |
| 20260503070948 | 39 | 355 | 0.0 | 0.0 | 0.00 | 0.05 | 0.00 | 1 | 1010.7 |
| 20260503070811 | 39 | 355 | 0.0 | 0.0 | 0.00 | 0.05 | 0.00 | 1 | 1010.8 |
| 20260503070732 | 39 | 355 | 0.0 | 0.0 | 0.00 | 0.05 | 0.00 | 1 | 1010.8 |
| 20260503070534 | 39 | 355 | 0.0 | 0.0 | 0.00 | 0.05 | 0.00 | 1 | 1010.8 |
| 20260503070435 | 39 | 355 | 0.0 | 0.0 | 0.00 | 0.05 | 0.00 | 1 | 1010.8 |
| 20260503070351 | 39 | 355 | 0.0 | 0.0 | 0.00 | 0.05 | 0.00 | 1 | 1010.8 |
| 20260503070312 | 39 | 355 | 0.0 | 0.0 | 0.00 | 0.05 | 0.00 | 1 | 1010.8 |
| 20260503070244 | 39 | 355 | 0.0 | 0.0 | 0.00 | 0.05 | 0.00 | 1 | 1010.8 |
| 20260503070114 | 39 | 355 | 0.0 | 0.0 | 0.00 | 0.05 | 0.00 | 1 | 1010.8 |
| 20260503060316 | 39 | 355 | 0.0 | 0.0 | 0.00 | 0.05 | 0.00 | 1 | 1011.2 |
| 20260503060157 | 39 | 355 | 0.0 | 0.0 | 0.00 | 0.05 | 0.00 | 1 | 1011.2 |
| 20260503060120 | 39 | 355 | 0.0 | 0.0 | 0.00 | 0.05 | 0.00 | 1 | 1011.2 |
| 20260503054948 | 39 | 355 | 0.0 | 0.0 | 0.00 | 0.05 | 0.00 | 1 | 1011.2 |
| 20260503054852 | 39 | 355 | 0.0 | 0.0 | 0.00 | 0.05 | 0.00 | 1 | 1011.2 |
| 20260503054723 | 39 | 355 | 0.0 | 0.0 | 0.00 | 0.05 | 0.00 | 1 | 1011.2 |
| 20260503054622 | 39 | 355 | 0.0 | 0.0 | 0.00 | 0.05 | 0.00 | 1 | 1011.2 |
| 20260503054504 | 39 | 355 | 0.0 | 0.0 | 0.00 | 0.05 | 0.00 | 1 | 1011.2 |
| 20260503054421 | 39 | 355 | 0.0 | 0.0 | 0.00 | 0.05 | 0.00 | 1 | 1011.2 |
| 20260503054231 | 39 | 355 | 0.0 | 0.0 | 0.00 | 0.05 | 0.00 | 1 | 1011.2 |
| 20260503054125 | 39 | 355 | 0.0 | 0.0 | 0.00 | 0.05 | 0.00 | 1 | 1011.2 |
| 20260503054048 | 39 | 355 | 0.0 | 0.0 | 0.00 | 0.05 | 0.00 | 1 | 1011.2 |
| 20260503053932 | 39 | 355 | 0.0 | 0.0 | 0.00 | 0.05 | 0.00 | 1 | 1011.3 |
| 20260503053856 | 39 | 355 | 0.0 | 0.0 | 0.00 | 0.05 | 0.00 | 1 | 1011.3 |
| 20260503053811 | 39 | 355 | 0.0 | 0.0 | 0.00 | 0.05 | 0.00 | 1 | 1011.3 |
| 20260503053619 | 39 | 355 | 0.0 | 0.0 | 0.00 | 0.05 | 0.00 | 1 | 1011.4 |
| 20260503053541 | 39 | 355 | 0.0 | 0.0 | 0.00 | 0.05 | 0.00 | 1 | 1011.4 |
| 20260503053349 | 39 | 355 | 0.0 | 0.0 | 0.00 | 0.05 | 0.00 | 1 | 1011.3 |
| 20260503053311 | 39 | 355 | 0.0 | 0.0 | 0.00 | 0.05 | 0.00 | 1 | 1011.3 |
| 20260503053214 | 39 | 355 | 0.0 | 0.0 | 0.00 | 0.05 | 0.00 | 1 | 1011.4 |
| 20260503053115 | 39 | 355 | 0.0 | 0.0 | 0.00 | 0.05 | 0.00 | 1 | 1011.3 |
| 20260503052944 | 39 | 355 | 0.0 | 0.0 | 0.00 | 0.05 | 0.00 | 1 | 1011.4 |
| 20260503052845 | 39 | 355 | 0.0 | 0.0 | 0.00 | 0.05 | 0.00 | 1 | 1011.4 |
| 20260503052716 | 39 | 355 | 0.0 | 0.0 | 0.00 | 0.05 | 0.00 | 1 | 1011.4 |
| 20260503052526 | 39 | 355 | 0.0 | 0.0 | 0.00 | 0.05 | 0.00 | 1 | 1011.5 |
| 20260503052428 | 39 | 355 | 0.0 | 0.0 | 0.00 | 0.05 | 0.00 | 1 | 1011.4 |
| 20260503052230 | 39 | 355 | 0.0 | 0.0 | 0.00 | 0.05 | 0.00 | 1 | 1011.5 |
| 20260503052152 | 39 | 355 | 0.0 | 0.0 | 0.00 | 0.05 | 0.00 | 1 | 1011.5 |
| 20260503052055 | 39 | 355 | 0.0 | 0.0 | 0.00 | 0.05 | 0.00 | 1 | 1011.5 |
| 20260503051938 | 39 | 355 | 0.0 | 0.0 | 0.00 | 0.05 | 0.00 | 1 | 1011.6 |
| 20260503051843 | 39 | 355 | 0.0 | 0.0 | 0.00 | 0.05 | 0.00 | 1 | 1011.6 |
| 20260503051743 | 39 | 355 | 0.0 | 0.0 | 0.00 | 0.05 | 0.00 | 1 | 1011.6 |
| 20260503051637 | 39 | 355 | 0.0 | 0.0 | 0.00 | 0.05 | 0.00 | 1 | 1011.6 |
| 20260503051609 | 39 | 355 | 0.0 | 0.0 | 0.00 | 0.05 | 0.00 | 1 | 1011.6 |
| 20260503051423 | 39 | 355 | 0.0 | 0.0 | 0.00 | 0.05 | 0.00 | 1 | 1011.6 |
| 20260503051327 | 39 | 355 | 0.0 | 0.0 | 0.00 | 0.05 | 0.00 | 1 | 1011.6 |
| 20260503051249 | 39 | 355 | 0.0 | 0.0 | 0.00 | 0.05 | 0.00 | 1 | 1011.6 |
| 20260503051122 | 39 | 355 | 0.0 | 0.0 | 0.00 | 0.05 | 0.00 | 1 | 1011.6 |
| 20260503051015 | 39 | 355 | 0.0 | 0.0 | 0.00 | 0.05 | 0.00 | 1 | 1011.6 |
| 20260503050826 | 39 | 355 | 0.0 | 0.0 | 0.00 | 0.05 | 0.00 | 1 | 1011.6 |
| 20260503050739 | 39 | 355 | 0.0 | 0.0 | 0.00 | 0.05 | 0.00 | 1 | 1011.7 |
| 20260503050640 | 39 | 355 | 0.0 | 0.0 | 0.00 | 0.05 | 0.00 | 1 | 1011.7 |
| 20260503050554 | 39 | 355 | 0.0 | 0.0 | 0.00 | 0.05 | 0.00 | 1 | 1011.7 |
| 20260503050456 | 39 | 355 | 0.0 | 0.0 | 0.00 | 0.05 | 0.00 | 1 | 1011.7 |
| 20260503050418 | 39 | 355 | 0.0 | 0.0 | 0.00 | 0.05 | 0.00 | 1 | 1011.7 |
| 20260503050240 | 39 | 355 | 0.0 | 0.0 | 0.00 | 0.05 | 0.00 | 1 | 1011.7 |
| 20260503050140 | 39 | 355 | 0.0 | 0.0 | 0.00 | 0.05 | 0.00 | 1 | 1011.7 |
| 20260503050026 | 39 | 355 | 0.0 | 0.0 | 0.00 | 0.05 | 0.00 | 1 | 1011.7 |
| 20260503045942 | 39 | 355 | 0.0 | 0.0 | 0.00 | 0.05 | 0.00 | 1 | 1011.7 |
| 20260503045834 | 39 | 355 | 0.0 | 0.0 | 0.00 | 0.05 | 0.00 | 1 | 1011.8 |
| 20260503045736 | 39 | 355 | 0.0 | 0.0 | 0.00 | 0.05 | 0.00 | 1 | 1011.8 |
| 20260503045659 | 39 | 355 | 0.0 | 0.0 | 0.00 | 0.05 | 0.00 | 1 | 1011.8 |
| 20260503045621 | 39 | 355 | 0.0 | 0.0 | 0.00 | 0.05 | 0.00 | 1 | 1011.8 |
| 20260503045542 | 39 | 355 | 0.0 | 0.0 | 0.00 | 0.05 | 0.00 | 1 | 1011.8 |
| 20260503045404 | 39 | 355 | 0.0 | 0.0 | 0.00 | 0.05 | 0.00 | 1 | 1011.8 |
| 20260503045325 | 39 | 355 | 0.0 | 0.0 | 0.00 | 0.05 | 0.00 | 1 | 1011.8 |
| 20260503045205 | 39 | 355 | 0.0 | 0.0 | 0.00 | 0.05 | 0.00 | 1 | 1011.8 |
| 20260503045023 | 39 | 355 | 0.0 | 0.0 | 0.00 | 0.05 | 0.00 | 1 | 1011.8 |
| 20260503044926 | 39 | 355 | 0.0 | 0.0 | 0.00 | 0.05 | 0.00 | 1 | 1011.8 |
| 20260503044850 | 39 | 355 | 0.0 | 0.0 | 0.00 | 0.05 | 0.00 | 1 | 1011.8 |
| 20260503044753 | 39 | 355 | 0.0 | 0.0 | 0.00 | 0.05 | 0.00 | 1 | 1011.9 |
| 20260503044653 | 39 | 355 | 0.0 | 0.0 | 0.00 | 0.05 | 0.00 | 1 | 1011.9 |
| 20260503044435 | 39 | 355 | 0.0 | 0.0 | 0.00 | 0.05 | 0.00 | 1 | 1011.9 |
| 20260503044358 | 39 | 355 | 0.0 | 0.0 | 0.00 | 0.05 | 0.00 | 1 | 1011.9 |
| 20260503044237 | 39 | 355 | 0.0 | 0.0 | 0.00 | 0.05 | 0.00 | 1 | 1011.9 |
| 20260503044133 | 39 | 355 | 0.0 | 0.0 | 0.00 | 0.05 | 0.00 | 1 | 1011.9 |
| 20260503044006 | 39 | 355 | 0.0 | 0.0 | 0.00 | 0.05 | 0.00 | 1 | 1011.9 |
| 20260503043927 | 39 | 355 | 0.0 | 0.0 | 0.00 | 0.05 | 0.00 | 1 | 1011.9 |
| 20260503043729 | 39 | 355 | 0.0 | 0.0 | 0.00 | 0.05 | 0.00 | 1 | 1011.9 |
| 20260503043631 | 39 | 355 | 0.0 | 0.0 | 0.00 | 0.05 | 0.00 | 1 | 1012.0 |
| 20260503043534 | 39 | 355 | 0.0 | 0.0 | 0.00 | 0.05 | 0.00 | 1 | 1011.9 |
| 20260503043456 | 39 | 355 | 0.0 | 0.0 | 0.00 | 0.05 | 0.00 | 1 | 1011.9 |
| 20260503043358 | 39 | 355 | 0.0 | 0.0 | 0.00 | 0.05 | 0.00 | 1 | 1011.9 |
| 20260503043251 | 39 | 355 | 0.0 | 0.0 | 0.00 | 0.05 | 0.00 | 1 | 1011.9 |
| 20260503043151 | 39 | 355 | 0.0 | 0.0 | 0.00 | 0.05 | 0.00 | 1 | 1011.9 |
| 20260503043022 | 39 | 355 | 0.0 | 0.0 | 0.00 | 0.05 | 0.00 | 1 | 1012.0 |
| 20260503042937 | 39 | 355 | 0.0 | 0.0 | 0.00 | 0.05 | 0.00 | 1 | 1012.0 |
| 20260503042812 | 39 | 355 | 0.0 | 0.0 | 0.00 | 0.05 | 0.00 | 1 | 1012.0 |
| 20260503042733 | 39 | 355 | 0.0 | 0.0 | 0.00 | 0.05 | 0.00 | 1 | 1012.1 |
| 20260503042604 | 39 | 355 | 0.0 | 0.0 | 0.00 | 0.05 | 0.00 | 1 | 1012.0 |
| 20260503042518 | 39 | 355 | 0.0 | 0.0 | 0.00 | 0.05 | 0.00 | 1 | 1012.0 |
| 20260503042328 | 39 | 355 | 0.0 | 0.0 | 0.00 | 0.05 | 0.00 | 1 | 1012.0 |
| 20260503042242 | 39 | 355 | 0.0 | 0.0 | 0.00 | 0.05 | 0.00 | 1 | 1012.0 |
| 20260503042114 | 39 | 355 | 0.0 | 0.0 | 0.00 | 0.05 | 0.00 | 1 | 1012.1 |
| 20260503042035 | 39 | 355 | 0.0 | 0.0 | 0.00 | 0.05 | 0.00 | 1 | 1012.1 |
| 20260503041840 | 39 | 355 | 0.0 | 0.0 | 0.00 | 0.05 | 0.00 | 1 | 1012.1 |
| 20260503041801 | 39 | 355 | 0.0 | 0.0 | 0.00 | 0.05 | 0.00 | 1 | 1012.1 |
| 20260503041637 | 39 | 355 | 0.0 | 0.0 | 0.00 | 0.05 | 0.00 | 1 | 1012.1 |
| 20260503041559 | 39 | 355 | 0.0 | 0.0 | 0.00 | 0.05 | 0.00 | 1 | 1012.1 |
| 20260503041424 | 39 | 355 | 0.0 | 0.0 | 0.00 | 0.05 | 0.00 | 1 | 1012.1 |
| 20260503041338 | 39 | 355 | 0.0 | 0.0 | 0.00 | 0.05 | 0.00 | 1 | 1012.1 |
| 20260503041126 | 39 | 355 | 0.0 | 0.0 | 0.00 | 0.05 | 0.00 | 1 | 1012.2 |
| 20260503041041 | 39 | 355 | 0.0 | 0.0 | 0.00 | 0.05 | 0.00 | 1 | 1012.2 |
| 20260503040911 | 39 | 355 | 0.0 | 0.0 | 0.00 | 0.05 | 0.00 | 1 | 1012.1 |
| 20260503040834 | 39 | 355 | 0.0 | 0.0 | 0.00 | 0.05 | 0.00 | 1 | 1012.2 |
| 20260503040637 | 39 | 355 | 0.0 | 0.0 | 0.00 | 0.05 | 0.00 | 1 | 1012.2 |
| 20260503040543 | 39 | 355 | 0.0 | 0.0 | 0.00 | 0.05 | 0.00 | 1 | 1012.2 |
| 20260503040446 | 39 | 355 | 0.0 | 0.0 | 0.00 | 0.05 | 0.00 | 1 | 1012.2 |
| 20260503040348 | 39 | 355 | 0.0 | 0.0 | 0.00 | 0.05 | 0.00 | 1 | 1012.2 |
| 20260503040309 | 39 | 355 | 0.0 | 0.0 | 0.00 | 0.05 | 0.00 | 1 | 1012.2 |
| 20260503040211 | 39 | 355 | 0.0 | 0.0 | 0.00 | 0.05 | 0.00 | 1 | 1012.2 |
| 20260503040134 | 39 | 355 | 0.0 | 0.0 | 0.00 | 0.05 | 0.00 | 1 | 1012.2 |
| 20260503035937 | 39 | 355 | 0.0 | 0.0 | 0.00 | 0.05 | 0.05 | 1 | 1012.2 |
| 20260503035836 | 39 | 355 | 0.0 | 0.0 | 0.00 | 0.05 | 0.05 | 1 | 1012.2 |
| 20260503035737 | 39 | 355 | 0.0 | 0.0 | 0.00 | 0.05 | 0.05 | 1 | 1012.2 |
| 20260503035644 | 39 | 355 | 0.0 | 0.0 | 0.00 | 0.05 | 0.05 | 1 | 1012.2 |
| 20260503035558 | 39 | 355 | 0.0 | 0.0 | 0.00 | 0.05 | 0.05 | 1 | 1012.2 |
| 20260503035408 | 39 | 355 | 0.0 | 0.0 | 0.00 | 0.05 | 0.05 | 1 | 1012.2 |
| 20260503035329 | 39 | 355 | 0.0 | 0.0 | 0.00 | 0.05 | 0.05 | 1 | 1012.2 |
| 20260503035153 | 39 | 355 | 0.0 | 0.0 | 0.00 | 0.05 | 0.05 | 1 | 1012.2 |
| 20260503035034 | 39 | 355 | 0.0 | 0.0 | 0.00 | 0.05 | 0.05 | 1 | 1012.2 |
| 20260503034928 | 39 | 355 | 0.0 | 0.0 | 0.00 | 0.05 | 0.05 | 1 | 1012.2 |
| 20260503034851 | 39 | 355 | 0.0 | 0.0 | 0.00 | 0.05 | 0.05 | 1 | 1012.2 |
| 20260503034755 | 39 | 355 | 0.0 | 0.0 | 0.00 | 0.05 | 0.05 | 1 | 1012.2 |
| 20260503034716 | 39 | 355 | 0.0 | 0.0 | 0.00 | 0.05 | 0.05 | 1 | 1012.3 |
| 20260503034531 | 39 | 355 | 0.0 | 0.0 | 0.00 | 0.05 | 0.05 | 1 | 1012.3 |
| 20260503034447 | 39 | 355 | 0.0 | 0.0 | 0.00 | 0.05 | 0.05 | 1 | 1012.3 |
| 20260503034317 | 39 | 355 | 0.0 | 0.0 | 0.00 | 0.05 | 0.05 | 1 | 1012.3 |
| 20260503034238 | 39 | 355 | 0.0 | 0.0 | 0.00 | 0.05 | 0.05 | 1 | 1012.3 |
| 20260503034041 | 39 | 355 | 0.0 | 0.0 | 0.00 | 0.05 | 0.05 | 1 | 1012.4 |
| 20260503034004 | 39 | 355 | 0.0 | 0.0 | 0.00 | 0.05 | 0.05 | 1 | 1012.4 |
| 20260503033907 | 39 | 355 | 0.0 | 0.0 | 0.00 | 0.05 | 0.05 | 1 | 1012.3 |
| 20260503033828 | 39 | 355 | 0.0 | 0.0 | 0.00 | 0.05 | 0.05 | 1 | 1012.4 |
| 20260503033631 | 39 | 355 | 0.0 | 0.0 | 0.00 | 0.05 | 0.05 | 1 | 1012.3 |
| 20260503033532 | 39 | 355 | 0.0 | 0.0 | 0.00 | 0.05 | 0.05 | 1 | 1012.4 |
| 20260503033439 | 39 | 355 | 0.0 | 0.0 | 0.00 | 0.05 | 0.05 | 1 | 1012.4 |
| 20260503033402 | 39 | 355 | 0.0 | 0.0 | 0.00 | 0.05 | 0.05 | 1 | 1012.4 |
| 20260503033335 | 39 | 355 | 0.0 | 0.0 | 0.00 | 0.05 | 0.05 | 1 | 1012.4 |
| 20260503033138 | 39 | 355 | 0.0 | 0.0 | 0.00 | 0.05 | 0.05 | 1 | 1012.4 |
| 20260503033100 | 39 | 355 | 0.0 | 0.0 | 0.00 | 0.05 | 0.05 | 1 | 1012.4 |
| 20260503032923 | 39 | 355 | 0.0 | 0.0 | 0.00 | 0.05 | 0.05 | 1 | 1012.4 |
| 20260503032838 | 39 | 355 | 0.0 | 0.0 | 0.00 | 0.05 | 0.05 | 1 | 1012.4 |
| 20260503032708 | 39 | 355 | 0.0 | 0.0 | 0.00 | 0.05 | 0.05 | 1 | 1012.4 |
| 20260503032635 | 39 | 355 | 0.0 | 0.0 | 0.00 | 0.05 | 0.05 | 1 | 1012.4 |
| 20260503032442 | 39 | 355 | 0.0 | 0.0 | 0.00 | 0.05 | 0.05 | 1 | 1012.4 |
| 20260503032345 | 39 | 355 | 0.0 | 0.0 | 0.00 | 0.05 | 0.05 | 1 | 1012.4 |
| 20260503032225 | 39 | 355 | 0.0 | 0.0 | 0.00 | 0.05 | 0.05 | 1 | 1012.4 |
| 20260503032148 | 39 | 355 | 0.0 | 0.0 | 0.00 | 0.05 | 0.05 | 1 | 1012.4 |
| 20260503032042 | 39 | 355 | 0.0 | 0.0 | 0.00 | 0.05 | 0.05 | 1 | 1012.4 |
| 20260503031924 | 40 | 355 | 0.0 | 0.0 | 0.00 | 0.05 | 0.05 | 1 | 1012.4 |
| 20260503031858 | 40 | 355 | 0.0 | 0.9 | 0.00 | 0.05 | 0.05 | 1 | 1012.4 |
| 20260503031821 | 40 | 355 | 0.0 | 0.9 | 0.00 | 0.05 | 0.05 | 1 | 1012.4 |
| 20260503031628 | 40 | 355 | 0.0 | 1.7 | 0.00 | 0.05 | 0.05 | 1 | 1012.4 |
| 20260503031550 | 40 | 355 | 0.0 | 1.7 | 0.00 | 0.05 | 0.05 | 1 | 1012.4 |
| 20260503031434 | 40 | 355 | 0.0 | 1.7 | 0.00 | 0.05 | 0.05 | 1 | 1012.4 |
| 20260503031355 | 39 | 355 | 0.0 | 1.7 | 0.00 | 0.05 | 0.05 | 1 | 1012.4 |
| 20260503031138 | 39 | 355 | 0.0 | 1.7 | 0.00 | 0.05 | 0.05 | 1 | 1012.4 |
| 20260503031100 | 39 | 355 | 0.0 | 1.7 | 0.00 | 0.05 | 0.05 | 1 | 1012.4 |
| 20260503031003 | 39 | 355 | 0.0 | 1.7 | 0.00 | 0.05 | 0.05 | 1 | 1012.4 |
| 20260503030924 | 39 | 355 | 0.0 | 1.7 | 0.00 | 0.05 | 0.05 | 1 | 1012.4 |
| 20260503030728 | 39 | 355 | 0.0 | 2.6 | 0.00 | 0.05 | 0.05 | 1 | 1012.4 |
| 20260503030633 | 39 | 355 | 0.0 | 2.6 | 0.00 | 0.05 | 0.05 | 1 | 1012.4 |
| 20260503030535 | 39 | 355 | 0.0 | 2.6 | 0.00 | 0.05 | 0.05 | 1 | 1012.5 |
| 20260503030458 | 39 | 355 | 0.0 | 2.6 | 0.00 | 0.05 | 0.05 | 1 | 1012.5 |
| 20260503030422 | 39 | 355 | 0.0 | 2.6 | 0.00 | 0.05 | 0.05 | 1 | 1012.5 |
| 20260503030224 | 39 | 355 | 0.0 | 2.6 | 0.00 | 0.05 | 0.05 | 1 | 1012.5 |
| 20260503030146 | 39 | 355 | 0.9 | 2.6 | 0.00 | 0.05 | 0.05 | 1 | 1012.5 |
| 20260503030029 | 39 | 355 | 1.7 | 2.6 | 0.00 | 0.05 | 0.05 | 1 | 1012.5 |
| 20260503025950 | 39 | 355 | 1.7 | 2.6 | 0.00 | 0.05 | 0.05 | 1 | 1012.5 |
| 20260503025821 | 39 | 355 | 0.9 | 1.7 | 0.00 | 0.05 | 0.05 | 1 | 1012.5 |
| 20260503025735 | 39 | 355 | 0.0 | 1.7 | 0.00 | 0.05 | 0.05 | 1 | 1012.5 |
| 20260503025606 | 39 | 355 | 0.0 | 0.0 | 0.00 | 0.05 | 0.05 | 1 | 1012.5 |
| 20260503025533 | 39 | 355 | 0.0 | 0.0 | 0.00 | 0.05 | 0.05 | 1 | 1012.6 |
| 20260503025336 | 39 | 355 | 0.0 | 0.0 | 0.00 | 0.05 | 0.05 | 1 | 1012.5 |
| 20260503025258 | 39 | 355 | 0.0 | 0.0 | 0.00 | 0.05 | 0.05 | 1 | 1012.5 |
| 20260503025141 | 39 | 355 | 0.0 | 0.9 | 0.00 | 0.05 | 0.05 | 1 | 1012.6 |
| 20260503025104 | 39 | 355 | 0.0 | 0.9 | 0.00 | 0.05 | 0.05 | 1 | 1012.6 |
| 20260503025019 | 39 | 355 | 0.0 | 0.9 | 0.00 | 0.05 | 0.05 | 1 | 1012.6 |
| 20260503024848 | 39 | 355 | 0.0 | 0.9 | 0.00 | 0.05 | 0.05 | 1 | 1012.5 |
| 20260503024751 | 39 | 355 | 0.0 | 0.9 | 0.00 | 0.05 | 0.05 | 1 | 1012.5 |
| 20260503024654 | 39 | 355 | 0.0 | 0.9 | 0.00 | 0.05 | 0.05 | 1 | 1012.5 |
| 20260503024556 | 39 | 355 | 0.0 | 0.9 | 0.00 | 0.05 | 0.05 | 1 | 1012.5 |
| 20260503024517 | 39 | 355 | 0.0 | 0.9 | 0.00 | 0.05 | 0.05 | 1 | 1012.5 |
| 20260503024323 | 39 | 355 | 0.9 | 0.9 | 0.00 | 0.05 | 0.05 | 1 | 1012.5 |
| 20260503024225 | 39 | 355 | 0.9 | 0.9 | 0.00 | 0.05 | 0.05 | 1 | 1012.5 |
| 20260503024129 | 39 | 355 | 0.0 | 0.9 | 0.00 | 0.05 | 0.05 | 1 | 1012.5 |
| 20260503024030 | 39 | 355 | 0.0 | 0.9 | 0.00 | 0.05 | 0.05 | 1 | 1012.5 |
| 20260503023831 | 39 | 355 | 0.0 | 0.9 | 0.00 | 0.05 | 0.05 | 1 | 1012.5 |
| 20260503023733 | 39 | 355 | 0.0 | 0.9 | 0.00 | 0.05 | 0.05 | 1 | 1012.4 |
| 20260503023638 | 39 | 355 | 0.0 | 0.9 | 0.00 | 0.05 | 0.05 | 1 | 1012.5 |
| 20260503023559 | 39 | 355 | 0.0 | 0.0 | 0.00 | 0.05 | 0.05 | 1 | 1012.5 |
| 20260503023430 | 40 | 355 | 0.0 | 0.9 | 0.00 | 0.05 | 0.05 | 1 | 1012.5 |
| 20260503023328 | 40 | 355 | 0.0 | 1.7 | 0.00 | 0.05 | 0.05 | 1 | 1012.5 |
| 20260503023139 | 40 | 355 | 0.0 | 1.7 | 0.00 | 0.05 | 0.05 | 1 | 1012.5 |
| 20260503023033 | 40 | 355 | 0.0 | 1.7 | 0.00 | 0.05 | 0.05 | 1 | 1012.5 |
| 20260503022926 | 40 | 355 | 0.0 | 1.7 | 0.00 | 0.05 | 0.05 | 1 | 1012.5 |
| 20260503022900 | 40 | 355 | 0.0 | 1.7 | 0.00 | 0.05 | 0.05 | 1 | 1012.5 |
| 20260503022821 | 40 | 355 | 0.0 | 1.7 | 0.00 | 0.05 | 0.05 | 1 | 1012.5 |
| 20260503022642 | 40 | 355 | 0.9 | 1.7 | 0.00 | 0.05 | 0.05 | 1 | 1012.5 |
| 20260503022543 | 40 | 355 | 0.9 | 1.7 | 0.00 | 0.05 | 0.05 | 1 | 1012.5 |
| 20260503022445 | 40 | 355 | 0.0 | 1.7 | 0.00 | 0.05 | 0.05 | 1 | 1012.7 |
| 20260503022350 | 40 | 355 | 0.0 | 1.7 | 0.00 | 0.05 | 0.05 | 1 | 1012.7 |
| 20260503022218 | 40 | 355 | 0.9 | 1.7 | 0.00 | 0.05 | 0.05 | 1 | 1012.6 |
| 20260503022119 | 40 | 355 | 0.0 | 1.7 | 0.00 | 0.05 | 0.05 | 1 | 1012.6 |
| 20260503021941 | 40 | 355 | 0.0 | 0.0 | 0.00 | 0.05 | 0.05 | 1 | 1012.6 |
| 20260503021842 | 40 | 355 | 0.0 | 0.0 | 0.00 | 0.05 | 0.05 | 1 | 1012.6 |
| 20260503021747 | 40 | 355 | 0.0 | 0.0 | 0.00 | 0.05 | 0.05 | 1 | 1012.6 |
| 20260503021708 | 40 | 355 | 0.0 | 0.0 | 0.00 | 0.05 | 0.05 | 1 | 1012.6 |
| 20260503021609 | 40 | 355 | 0.0 | 0.0 | 0.00 | 0.05 | 0.05 | 1 | 1012.6 |
| 20260503021512 | 40 | 355 | 0.0 | 0.0 | 0.00 | 0.05 | 0.05 | 1 | 1012.6 |
| 20260503021435 | 40 | 355 | 0.0 | 0.0 | 0.00 | 0.05 | 0.05 | 1 | 1012.6 |
| 20260503021306 | 40 | 355 | 0.0 | 0.0 | 0.00 | 0.05 | 0.05 | 1 | 1012.7 |
| 20260503021143 | 41 | 355 | 0.0 | 0.0 | 0.00 | 0.05 | 0.05 | 1 | 1012.7 |
| 20260503021035 | 41 | 355 | 0.0 | 0.0 | 0.00 | 0.05 | 0.05 | 1 | 1012.7 |
| 20260503020959 | 41 | 355 | 0.0 | 0.0 | 0.00 | 0.05 | 0.05 | 1 | 1012.7 |
| 20260503020921 | 41 | 355 | 0.0 | 0.0 | 0.00 | 0.05 | 0.05 | 1 | 1012.7 |
| 20260503020725 | 41 | 355 | 0.0 | 0.0 | 0.00 | 0.05 | 0.05 | 1 | 1012.7 |
| 20260503020629 | 41 | 355 | 0.0 | 0.0 | 0.00 | 0.05 | 0.05 | 1 | 1012.8 |
| 20260503020531 | 41 | 355 | 0.0 | 0.0 | 0.00 | 0.05 | 0.05 | 1 | 1012.8 |
| 20260503020454 | 41 | 355 | 0.0 | 0.0 | 0.00 | 0.05 | 0.05 | 1 | 1012.8 |
| 20260503020415 | 41 | 355 | 0.0 | 0.0 | 0.00 | 0.05 | 0.05 | 1 | 1012.8 |
| 20260503020231 | 41 | 355 | 0.0 | 0.0 | 0.00 | 0.05 | 0.05 | 1 | 1012.7 |
| 20260503020155 | 41 | 355 | 0.0 | 0.0 | 0.00 | 0.05 | 0.05 | 1 | 1012.7 |
| 20260503020058 | 41 | 355 | 0.0 | 0.0 | 0.00 | 0.05 | 0.05 | 1 | 1012.8 |
| 20260503015955 | 41 | 355 | 0.0 | 0.0 | 0.00 | 0.05 | 0.05 | 1 | 1012.8 |
| 20260503015916 | 41 | 355 | 0.0 | 0.0 | 0.00 | 0.05 | 0.05 | 1 | 1012.8 |
| 20260503015741 | 41 | 355 | 0.0 | 0.0 | 0.00 | 0.05 | 0.05 | 1 | 1012.8 |
| 20260503015643 | 41 | 355 | 0.0 | 0.0 | 0.00 | 0.05 | 0.05 | 1 | 1012.8 |
| 20260503015526 | 41 | 355 | 0.0 | 0.0 | 0.00 | 0.05 | 0.05 | 1 | 1012.8 |
| 20260503015448 | 41 | 355 | 0.0 | 0.0 | 0.00 | 0.05 | 0.05 | 1 | 1012.8 |
| 20260503015328 | 41 | 355 | 0.0 | 0.0 | 0.00 | 0.05 | 0.05 | 1 | 1012.8 |
| 20260503015241 | 41 | 355 | 0.0 | 0.0 | 0.00 | 0.05 | 0.05 | 1 | 1012.8 |
| 20260503015145 | 41 | 355 | 0.0 | 0.0 | 0.00 | 0.05 | 0.05 | 1 | 1012.8 |
| 20260503015106 | 41 | 355 | 0.0 | 0.0 | 0.00 | 0.05 | 0.05 | 1 | 1012.8 |
| 20260503015010 | 41 | 355 | 0.0 | 0.0 | 0.00 | 0.05 | 0.05 | 1 | 1012.9 |
| 20260503014930 | 41 | 355 | 0.0 | 0.0 | 0.00 | 0.05 | 0.05 | 1 | 1012.9 |
| 20260503014739 | 41 | 355 | 0.0 | 0.0 | 0.00 | 0.05 | 0.05 | 1 | 1012.9 |
| 20260503014632 | 41 | 355 | 0.0 | 0.0 | 0.00 | 0.05 | 0.05 | 1 | 1012.9 |
| 20260503014442 | 41 | 355 | 0.0 | 0.0 | 0.00 | 0.05 | 0.05 | 1 | 1012.9 |
| 20260503014338 | 41 | 355 | 0.0 | 0.0 | 0.00 | 0.05 | 0.05 | 1 | 1012.9 |
| 20260503014225 | 41 | 355 | 0.0 | 0.0 | 0.00 | 0.05 | 0.05 | 1 | 1012.9 |
| 20260503014145 | 41 | 355 | 0.0 | 0.0 | 0.00 | 0.05 | 0.05 | 1 | 1012.9 |
| 20260503014046 | 41 | 355 | 0.0 | 0.9 | 0.00 | 0.05 | 0.05 | 1 | 1012.9 |
| 20260503013951 | 41 | 355 | 0.0 | 0.9 | 0.00 | 0.05 | 0.05 | 1 | 1012.8 |
| 20260503013841 | 41 | 355 | 0.0 | 0.9 | 0.00 | 0.05 | 0.05 | 1 | 1012.8 |
| 20260503013724 | 41 | 355 | 0.0 | 1.7 | 0.00 | 0.05 | 0.05 | 1 | 1012.8 |
| 20260503013648 | 41 | 355 | 0.0 | 1.7 | 0.00 | 0.05 | 0.05 | 1 | 1012.8 |
| 20260503013542 | 41 | 355 | 0.0 | 1.7 | 0.00 | 0.05 | 0.05 | 1 | 1012.8 |
| 20260503013429 | 41 | 355 | 0.0 | 1.7 | 0.00 | 0.05 | 0.05 | 1 | 1012.8 |
| 20260503013353 | 41 | 355 | 0.0 | 1.7 | 0.00 | 0.05 | 0.05 | 1 | 1012.8 |
| 20260503013315 | 41 | 355 | 0.0 | 1.7 | 0.00 | 0.05 | 0.05 | 1 | 1012.8 |
| 20260503013138 | 41 | 355 | 0.9 | 1.7 | 0.00 | 0.05 | 0.05 | 1 | 1012.8 |
| 20260503013040 | 41 | 355 | 0.9 | 1.7 | 0.00 | 0.05 | 0.05 | 1 | 1012.8 |
| 20260503012924 | 41 | 355 | 0.9 | 1.7 | 0.00 | 0.05 | 0.05 | 1 | 1012.8 |
| 20260503012848 | 41 | 355 | 0.0 | 1.7 | 0.00 | 0.05 | 0.05 | 1 | 1012.8 |
| 20260503012722 | 41 | 355 | 0.0 | 1.7 | 0.00 | 0.05 | 0.05 | 1 | 1012.8 |
| 20260503012627 | 41 | 355 | 0.9 | 1.7 | 0.00 | 0.05 | 0.05 | 1 | 1012.8 |
| 20260503012531 | 41 | 355 | 0.0 | 1.7 | 0.00 | 0.05 | 0.05 | 1 | 1012.8 |
| 20260503012434 | 41 | 355 | 0.0 | 2.6 | 0.00 | 0.05 | 0.05 | 1 | 1012.8 |
| 20260503012347 | 41 | 355 | 0.0 | 2.6 | 0.00 | 0.05 | 0.05 | 1 | 1012.8 |
| 20260503012308 | 41 | 355 | 0.0 | 2.6 | 0.00 | 0.05 | 0.05 | 1 | 1012.8 |
| 20260503012229 | 41 | 355 | 0.0 | 2.6 | 0.00 | 0.05 | 0.05 | 1 | 1012.8 |
| 20260503012112 | 41 | 355 | 0.0 | 2.6 | 0.00 | 0.05 | 0.05 | 1 | 1012.7 |
| 20260503012033 | 41 | 355 | 0.9 | 2.6 | 0.00 | 0.05 | 0.05 | 1 | 1012.7 |
| 20260503011836 | 41 | 355 | 1.7 | 2.6 | 0.00 | 0.05 | 0.05 | 1 | 1012.7 |
| 20260503011737 | 41 | 355 | 1.7 | 2.6 | 0.00 | 0.05 | 0.05 | 1 | 1012.7 |
| 20260503011640 | 41 | 355 | 1.7 | 2.6 | 0.00 | 0.05 | 0.05 | 1 | 1012.7 |
| 20260503011608 | 41 | 355 | 1.7 | 2.6 | 0.00 | 0.05 | 0.05 | 1 | 1012.7 |
| 20260503011530 | 41 | 355 | 1.7 | 2.6 | 0.00 | 0.05 | 0.05 | 1 | 1012.7 |
| 20260503011333 | 41 | 355 | 1.7 | 2.6 | 0.00 | 0.05 | 0.05 | 1 | 1012.6 |
| 20260503011256 | 41 | 355 | 1.7 | 2.6 | 0.00 | 0.05 | 0.05 | 1 | 1012.6 |
| 20260503011158 | 41 | 355 | 1.7 | 2.6 | 0.00 | 0.05 | 0.05 | 1 | 1012.6 |
| 20260503011059 | 41 | 355 | 1.7 | 2.6 | 0.00 | 0.05 | 0.05 | 1 | 1012.6 |
| 20260503011022 | 41 | 355 | 1.7 | 2.6 | 0.00 | 0.05 | 0.05 | 1 | 1012.6 |
| 20260503010824 | 41 | 355 | 1.7 | 2.6 | 0.00 | 0.05 | 0.05 | 1 | 1012.6 |
| 20260503010746 | 41 | 355 | 0.9 | 2.6 | 0.00 | 0.05 | 0.05 | 1 | 1012.6 |
| 20260503010629 | 41 | 355 | 0.9 | 2.6 | 0.00 | 0.05 | 0.05 | 1 | 1012.7 |
| 20260503010554 | 41 | 355 | 0.9 | 2.6 | 0.00 | 0.05 | 0.05 | 1 | 1012.6 |
| 20260503010456 | 41 | 355 | 0.9 | 2.6 | 0.00 | 0.05 | 0.05 | 1 | 1012.6 |
| 20260503010339 | 41 | 355 | 1.7 | 2.6 | 0.00 | 0.05 | 0.05 | 1 | 1012.6 |
| 20260503010302 | 41 | 355 | 1.7 | 2.6 | 0.00 | 0.05 | 0.05 | 1 | 1012.6 |
| 20260503010216 | 41 | 355 | 1.7 | 2.6 | 0.00 | 0.05 | 0.05 | 1 | 1012.6 |
| 20260503010027 | 41 | 355 | 0.0 | 1.7 | 0.00 | 0.05 | 0.05 | 1 | 1012.5 |
| 20260503005941 | 41 | 355 | 0.9 | 1.7 | 0.00 | 0.05 | 0.05 | 1 | 1012.6 |
| 20260503005841 | 41 | 355 | 0.9 | 1.7 | 0.00 | 0.05 | 0.05 | 1 | 1012.5 |
| 20260503005736 | 41 | 355 | 1.7 | 1.7 | 0.01 | 0.05 | 0.05 | 1 | 1012.5 |
| 20260503005701 | 41 | 355 | 1.7 | 1.7 | 0.01 | 0.05 | 0.05 | 1 | 1012.5 |
| 20260503005618 | 41 | 355 | 1.7 | 1.7 | 0.01 | 0.05 | 0.05 | 1 | 1012.5 |
| 20260503005439 | 41 | 355 | 1.7 | 1.7 | 0.01 | 0.05 | 0.05 | 1 | 1012.5 |
| 20260503005354 | 41 | 355 | 0.9 | 1.7 | 0.01 | 0.05 | 0.05 | 1 | 1012.5 |
| 20260503005144 | 41 | 355 | 1.7 | 1.7 | 0.01 | 0.05 | 0.05 | 1 | 1012.5 |
| 20260503005040 | 41 | 355 | 0.9 | 1.7 | 0.01 | 0.05 | 0.05 | 1 | 1012.5 |
| 20260503004915 | 41 | 355 | 0.9 | 1.7 | 0.01 | 0.05 | 0.05 | 1 | 1012.5 |
| 20260503004826 | 41 | 355 | 0.0 | 1.7 | 0.01 | 0.05 | 0.05 | 1 | 1012.5 |
| 20260503004732 | 41 | 355 | 0.0 | 0.0 | 0.01 | 0.05 | 0.05 | 1 | 1012.4 |
| 20260503004654 | 41 | 355 | 0.0 | 0.9 | 0.01 | 0.05 | 0.05 | 1 | 1012.4 |
| 20260503004617 | 41 | 355 | 0.0 | 0.9 | 0.01 | 0.05 | 0.05 | 1 | 1012.4 |
| 20260503004446 | 41 | 355 | 0.0 | 1.7 | 0.01 | 0.05 | 0.05 | 1 | 1012.5 |
| 20260503004351 | 41 | 355 | 0.0 | 1.7 | 0.01 | 0.05 | 0.05 | 1 | 1012.5 |
| 20260503004220 | 41 | 355 | 0.0 | 1.7 | 0.01 | 0.05 | 0.05 | 1 | 1012.5 |
| 20260503004142 | 41 | 355 | 0.0 | 1.7 | 0.01 | 0.05 | 0.05 | 1 | 1012.5 |
| 20260503003933 | 41 | 355 | 0.0 | 1.7 | 0.01 | 0.05 | 0.05 | 1 | 1012.5 |
| 20260503003743 | 41 | 355 | 0.9 | 1.7 | 0.01 | 0.05 | 0.05 | 1 | 1012.5 |
| 20260503003636 | 41 | 355 | 0.9 | 1.7 | 0.01 | 0.05 | 0.05 | 1 | 1012.4 |
| 20260503003523 | 41 | 355 | 0.9 | 2.6 | 0.01 | 0.05 | 0.05 | 1 | 1012.4 |
| 20260503003446 | 41 | 355 | 0.9 | 2.6 | 0.01 | 0.05 | 0.05 | 1 | 1012.4 |
| 20260503003409 | 41 | 355 | 0.9 | 2.6 | 0.01 | 0.05 | 0.05 | 1 | 1012.4 |
| 20260503003325 | 41 | 355 | 0.9 | 2.6 | 0.01 | 0.05 | 0.05 | 1 | 1012.4 |
| 20260503003225 | 41 | 355 | 0.9 | 2.6 | 0.01 | 0.05 | 0.05 | 1 | 1012.4 |
| 20260503003038 | 41 | 355 | 0.9 | 2.6 | 0.01 | 0.05 | 0.05 | 1 | 1012.4 |
| 20260503002930 | 41 | 355 | 0.9 | 2.6 | 0.01 | 0.05 | 0.05 | 1 | 1012.4 |
| 20260503002818 | 41 | 355 | 1.7 | 2.6 | 0.01 | 0.05 | 0.05 | 1 | 1012.4 |
| 20260503002740 | 42 | 355 | 0.9 | 2.6 | 0.01 | 0.05 | 0.05 | 1 | 1012.4 |
| 20260503002526 | 42 | 355 | 1.7 | 2.6 | 0.01 | 0.05 | 0.05 | 1 | 1012.4 |
| 20260503002427 | 42 | 355 | 1.7 | 2.6 | 0.01 | 0.05 | 0.05 | 1 | 1012.4 |
| 20260503002341 | 42 | 355 | 1.7 | 2.6 | 0.01 | 0.05 | 0.05 | 1 | 1012.4 |
| 20260503002243 | 42 | 355 | 1.7 | 2.6 | 0.01 | 0.05 | 0.05 | 1 | 1012.4 |
| 20260503002127 | 42 | 355 | 1.7 | 2.6 | 0.01 | 0.05 | 0.05 | 1 | 1012.4 |
| 20260503002050 | 42 | 355 | 1.7 | 2.6 | 0.01 | 0.05 | 0.05 | 1 | 1012.4 |
| 20260503001832 | 42 | 355 | 1.7 | 1.7 | 0.01 | 0.05 | 0.05 | 1 | 1012.4 |
| 20260503001755 | 42 | 355 | 1.7 | 1.7 | 0.01 | 0.05 | 0.05 | 1 | 1012.4 |
| 20260503001615 | 42 | 355 | 0.9 | 1.7 | 0.01 | 0.05 | 0.05 | 1 | 1012.4 |
| 20260503001437 | 42 | 355 | 0.9 | 1.7 | 0.01 | 0.05 | 0.05 | 1 | 1012.4 |
| 20260503001339 | 42 | 355 | 0.9 | 1.7 | 0.01 | 0.05 | 0.05 | 1 | 1012.4 |
| 20260503001242 | 42 | 355 | 0.0 | 1.7 | 0.01 | 0.05 | 0.05 | 1 | 1012.4 |
| 20260503001202 | 42 | 355 | 0.0 | 1.7 | 0.01 | 0.05 | 0.05 | 1 | 1012.4 |
| 20260503001102 | 42 | 355 | 0.0 | 1.7 | 0.01 | 0.05 | 0.05 | 1 | 1012.4 |
| 20260503001025 | 42 | 355 | 0.0 | 1.7 | 0.01 | 0.05 | 0.05 | 1 | 1012.4 |
| 20260503000919 | 42 | 355 | 0.0 | 1.7 | 0.02 | 0.05 | 0.05 | 1 | 1012.3 |
| 20260503000748 | 42 | 355 | 0.0 | 0.9 | 0.02 | 0.05 | 0.05 | 1 | 1012.4 |